Time,TemperatureF,DewpointF,PressureIn,WindDirection,WindDirectionDegrees,WindSpeedMPH,WindSpeedGustMPH,Humidity,HourlyPrecipIn,Conditions,Clouds,dailyrainin,SoftwareType,DateUTC
2013-02-13 00:00:00,26.9,20.0,29.87,SW,234,6.0,17.0,75,0.00,,---,0.00,VWS V14.00,2013-02-13 05:00:00,
2013-02-13 00:05:00,26.9,20.0,29.87,WNW,291,9.0,18.0,75,0.00,,---,0.00,VWS V14.00,2013-02-13 05:05:00,
2013-02-13 00:10:00,26.9,20.0,29.87,West,277,13.0,18.0,75,0.00,,---,0.00,VWS V14.00,2013-02-13 05:10:00,
2013-02-13 00:15:00,26.9,20.0,29.87,West,280,2.0,18.0,75,0.00,,---,0.00,VWS V14.00,2013-02-13 05:15:00,
2013-02-13 00:20:00,26.9,20.0,29.87,SW,215,8.0,18.0,75,0.00,,---,0.00,VWS V14.00,2013-02-13 05:20:00,
2013-02-13 00:21:00,26.9,20.0,29.87,West,277,7.0,18.0,75,0.00,,---,0.00,VWS V14.00,2013-02-13 05:21:00,
2013-02-13 00:25:00,26.9,20.0,29.87,WNW,284,6.0,18.0,75,0.00,,---,0.00,VWS V14.00,2013-02-13 05:25:00,
2013-02-13 00:26:00,26.9,20.0,29.87,WNW,287,2.0,18.0,75,0.00,,---,0.00,VWS V14.00,2013-02-13 05:26:00,
2013-02-13 00:30:00,26.9,20.4,29.87,NW,305,0.0,18.0,76,0.00,,---,0.00,VWS V14.00,2013-02-13 05:30:00,
2013-02-13 00:31:00,26.9,20.4,29.87,NW,308,0.0,18.0,76,0.00,,---,0.00,VWS V14.00,2013-02-13 05:31:00,
2013-02-13 00:35:00,26.9,20.4,29.87,NW,304,4.0,18.0,76,0.00,,---,0.00,VWS V14.00,2013-02-13 05:35:00,
2013-02-13 00:36:00,26.9,20.4,29.87,WNW,299,2.0,18.0,76,0.00,,---,0.00,VWS V14.00,2013-02-13 05:36:00,
2013-02-13 00:40:00,26.9,20.4,29.87,WNW,289,4.0,18.0,76,0.00,,---,0.00,VWS V14.00,2013-02-13 05:40:00,
2013-02-13 00:41:00,26.9,20.4,29.87,WNW,289,4.0,18.0,76,0.00,,---,0.00,VWS V14.00,2013-02-13 05:41:00,
2013-02-13 00:46:00,26.9,20.4,29.86,NW,315,7.0,18.0,76,0.00,,---,0.00,VWS V14.00,2013-02-13 05:46:00,
2013-02-13 00:51:00,26.9,20.4,29.86,WNW,287,6.0,18.0,76,0.00,,---,0.00,VWS V14.00,2013-02-13 05:51:00,
2013-02-13 00:56:00,26.9,20.4,29.86,NW,326,4.0,18.0,76,0.00,,---,0.00,VWS V14.00,2013-02-13 05:56:00,
2013-02-13 01:01:00,26.9,20.4,29.86,WSW,243,7.0,8.0,76,0.00,,---,0.00,VWS V14.00,2013-02-13 06:01:00,
2013-02-13 01:06:00,26.9,20.4,29.86,West,270,6.0,9.0,76,0.00,,---,0.00,VWS V14.00,2013-02-13 06:06:00,
2013-02-13 01:07:00,26.9,20.4,29.86,West,272,4.0,9.0,76,0.00,,---,0.00,VWS V14.00,2013-02-13 06:07:00,
2013-02-13 01:11:00,26.9,20.7,29.86,WNW,282,8.0,9.0,77,0.00,,---,0.00,VWS V14.00,2013-02-13 06:11:00,
2013-02-13 01:12:00,26.9,20.7,29.86,WSW,246,2.0,9.0,77,0.00,,---,0.00,VWS V14.00,2013-02-13 06:12:00,
2013-02-13 01:16:00,26.9,20.7,29.86,SW,234,6.0,9.0,77,0.00,,---,0.00,VWS V14.00,2013-02-13 06:16:00,
2013-02-13 01:17:00,26.9,20.7,29.86,West,280,9.0,9.0,77,0.00,,---,0.00,VWS V14.00,2013-02-13 06:17:00,
2013-02-13 01:21:00,26.9,20.7,29.86,West,280,1.0,9.0,77,0.00,,---,0.00,VWS V14.00,2013-02-13 06:21:00,
2013-02-13 01:22:00,26.9,20.7,29.86,West,280,2.0,9.0,77,0.00,,---,0.00,VWS V14.00,2013-02-13 06:22:00,
2013-02-13 01:26:00,26.9,20.7,29.86,WNW,294,2.0,9.0,77,0.00,,---,0.00,VWS V14.00,2013-02-13 06:26:00,
2013-02-13 01:27:00,26.9,20.7,29.86,WNW,294,4.0,9.0,77,0.00,,---,0.00,VWS V14.00,2013-02-13 06:27:00,
2013-02-13 01:31:00,26.9,20.7,29.86,West,277,4.0,9.0,77,0.00,,---,0.00,VWS V14.00,2013-02-13 06:31:00,
2013-02-13 01:32:00,26.9,20.7,29.86,WNW,292,2.0,9.0,77,0.00,,---,0.00,VWS V14.00,2013-02-13 06:32:00,
2013-02-13 01:36:00,26.9,20.7,29.86,NW,315,4.0,9.0,77,0.00,,---,0.00,VWS V14.00,2013-02-13 06:36:00,
2013-02-13 01:37:00,26.9,20.7,29.86,NW,315,4.0,9.0,77,0.00,,---,0.00,VWS V14.00,2013-02-13 06:37:00,
2013-02-13 01:41:00,26.9,20.7,29.86,WNW,302,7.0,9.0,77,0.00,,---,0.00,VWS V14.00,2013-02-13 06:41:00,
2013-02-13 01:42:00,26.9,20.7,29.86,WNW,299,6.0,9.0,77,0.00,,---,0.00,VWS V14.00,2013-02-13 06:42:00,
2013-02-13 01:46:00,26.9,20.7,29.85,WNW,296,8.0,9.0,77,0.00,,---,0.00,VWS V14.00,2013-02-13 06:46:00,
2013-02-13 01:47:00,26.9,20.7,29.85,WNW,296,4.0,9.0,77,0.00,,---,0.00,VWS V14.00,2013-02-13 06:47:00,
2013-02-13 01:51:00,26.9,20.7,29.85,WNW,289,10.0,10.0,77,0.00,,---,0.00,VWS V14.00,2013-02-13 06:51:00,
2013-02-13 01:52:00,26.9,20.7,29.85,WNW,285,6.0,10.0,77,0.00,,---,0.00,VWS V14.00,2013-02-13 06:52:00,
2013-02-13 01:53:00,26.9,20.7,29.85,WNW,284,10.0,10.0,77,0.00,,---,0.00,VWS V14.00,2013-02-13 06:53:00,
2013-02-13 01:56:00,26.9,20.7,29.85,NW,308,8.0,13.0,77,0.00,,---,0.00,VWS V14.00,2013-02-13 06:56:00,
2013-02-13 01:57:00,26.9,20.7,29.85,NW,305,4.0,13.0,77,0.00,,---,0.00,VWS V14.00,2013-02-13 06:57:00,
2013-02-13 01:58:00,26.9,20.7,29.85,WNW,295,8.0,13.0,77,0.00,,---,0.00,VWS V14.00,2013-02-13 06:58:00,
2013-02-13 02:01:00,26.7,20.5,29.85,WNW,288,7.0,11.0,77,0.00,,---,0.00,VWS V14.00,2013-02-13 07:01:00,
2013-02-13 02:02:00,26.7,20.5,29.85,WNW,292,8.0,11.0,77,0.00,,---,0.00,VWS V14.00,2013-02-13 07:02:00,
2013-02-13 02:03:00,26.7,20.5,29.85,WNW,291,6.0,11.0,77,0.00,,---,0.00,VWS V14.00,2013-02-13 07:03:00,
2013-02-13 02:06:00,26.7,20.5,29.85,NW,311,4.0,11.0,77,0.00,,---,0.00,VWS V14.00,2013-02-13 07:06:00,
2013-02-13 02:07:00,26.7,20.5,29.85,WNW,288,8.0,11.0,77,0.00,,---,0.00,VWS V14.00,2013-02-13 07:07:00,
2013-02-13 02:08:00,26.7,20.5,29.85,West,278,8.0,11.0,77,0.00,,---,0.00,VWS V14.00,2013-02-13 07:08:00,
2013-02-13 02:11:00,26.7,20.5,29.85,NW,320,7.0,11.0,77,0.00,,---,0.00,VWS V14.00,2013-02-13 07:11:00,
2013-02-13 02:12:00,26.7,20.5,29.85,WNW,285,7.0,11.0,77,0.00,,---,0.00,VWS V14.00,2013-02-13 07:12:00,
2013-02-13 02:13:00,26.7,20.5,29.85,West,280,9.0,11.0,77,0.00,,---,0.00,VWS V14.00,2013-02-13 07:13:00,
2013-02-13 02:16:00,26.7,20.5,29.84,NW,313,6.0,11.0,77,0.00,,---,0.00,VWS V14.00,2013-02-13 07:16:00,
2013-02-13 02:18:00,26.7,20.5,29.84,NW,313,4.0,11.0,77,0.00,,---,0.00,VWS V14.00,2013-02-13 07:18:00,
2013-02-13 02:22:00,26.9,20.7,29.84,SW,223,8.0,11.0,77,0.00,,---,0.00,VWS V14.00,2013-02-13 07:22:00,
2013-02-13 02:23:00,26.9,21.0,29.84,WNW,285,8.0,11.0,78,0.00,,---,0.00,VWS V14.00,2013-02-13 07:23:00,
2013-02-13 02:27:00,26.7,20.5,29.84,West,277,11.0,11.0,77,0.00,,---,0.00,VWS V14.00,2013-02-13 07:27:00,
2013-02-13 02:28:00,26.7,20.5,29.84,WNW,284,6.0,11.0,77,0.00,,---,0.00,VWS V14.00,2013-02-13 07:28:00,
2013-02-13 02:32:00,26.7,20.8,29.84,WNW,289,8.0,11.0,78,0.00,,---,0.00,VWS V14.00,2013-02-13 07:32:00,
2013-02-13 02:33:00,26.7,20.8,29.84,WNW,282,6.0,11.0,78,0.00,,---,0.00,VWS V14.00,2013-02-13 07:33:00,
2013-02-13 02:37:00,26.7,20.8,29.84,WNW,287,8.0,11.0,78,0.00,,---,0.00,VWS V14.00,2013-02-13 07:37:00,
2013-02-13 02:38:00,26.7,20.8,29.84,WNW,288,7.0,11.0,78,0.00,,---,0.00,VWS V14.00,2013-02-13 07:38:00,
2013-02-13 02:42:00,26.7,20.8,29.84,WNW,295,4.0,11.0,78,0.00,,---,0.00,VWS V14.00,2013-02-13 07:42:00,
2013-02-13 02:43:00,26.7,20.8,29.84,WNW,294,6.0,11.0,78,0.00,,---,0.00,VWS V14.00,2013-02-13 07:43:00,
2013-02-13 02:48:00,26.7,20.8,29.84,NW,313,1.0,11.0,78,0.00,,---,0.00,VWS V14.00,2013-02-13 07:48:00,
2013-02-13 02:49:00,26.7,20.8,29.84,NNW,346,4.0,11.0,78,0.00,,---,0.00,VWS V14.00,2013-02-13 07:49:00,
2013-02-13 02:53:00,26.7,20.8,29.84,NNW,342,0.0,11.0,78,0.00,,---,0.00,VWS V14.00,2013-02-13 07:53:00,
2013-02-13 02:54:00,26.7,20.8,29.84,NNW,342,0.0,11.0,78,0.00,,---,0.00,VWS V14.00,2013-02-13 07:54:00,
2013-02-13 02:58:00,26.7,20.8,29.84,WNW,302,2.0,11.0,78,0.00,,---,0.00,VWS V14.00,2013-02-13 07:58:00,
2013-02-13 02:59:00,26.7,20.8,29.84,WNW,302,2.0,11.0,78,0.00,,---,0.00,VWS V14.00,2013-02-13 07:59:00,
2013-02-13 03:03:00,26.7,20.8,29.83,WNW,287,7.0,8.0,78,0.00,,---,0.00,VWS V14.00,2013-02-13 08:03:00,
2013-02-13 03:04:00,26.7,20.8,29.83,WNW,289,4.0,8.0,78,0.00,,---,0.00,VWS V14.00,2013-02-13 08:04:00,
2013-02-13 03:08:00,26.7,20.8,29.83,WNW,284,8.0,10.0,78,0.00,,---,0.00,VWS V14.00,2013-02-13 08:08:00,
2013-02-13 03:09:00,26.7,20.8,29.83,West,268,2.0,10.0,78,0.00,,---,0.00,VWS V14.00,2013-02-13 08:09:00,
2013-02-13 03:13:00,26.7,20.8,29.83,SW,226,4.0,13.0,78,0.00,,---,0.00,VWS V14.00,2013-02-13 08:13:00,
2013-02-13 03:14:00,26.7,20.8,29.83,SW,226,2.0,13.0,78,0.00,,---,0.00,VWS V14.00,2013-02-13 08:14:00,
2013-02-13 03:18:00,26.6,20.7,29.83,West,277,4.0,13.0,78,0.00,,---,0.00,VWS V14.00,2013-02-13 08:18:00,
2013-02-13 03:19:00,26.6,20.7,29.83,WSW,254,4.0,13.0,78,0.00,,---,0.00,VWS V14.00,2013-02-13 08:19:00,
2013-02-13 03:23:00,26.6,20.7,29.83,NW,311,2.0,13.0,78,0.00,,---,0.00,VWS V14.00,2013-02-13 08:23:00,
2013-02-13 03:24:00,26.6,20.7,29.83,NNW,344,4.0,13.0,78,0.00,,---,0.00,VWS V14.00,2013-02-13 08:24:00,
2013-02-13 03:28:00,26.6,20.7,29.83,WNW,298,8.0,13.0,78,0.00,,---,0.00,VWS V14.00,2013-02-13 08:28:00,
2013-02-13 03:29:00,26.6,20.7,29.83,WNW,296,8.0,13.0,78,0.00,,---,0.00,VWS V14.00,2013-02-13 08:29:00,
2013-02-13 03:30:00,26.6,20.7,29.83,WNW,295,7.0,13.0,78,0.00,,---,0.00,VWS V14.00,2013-02-13 08:30:00,
2013-02-13 03:33:00,26.6,20.7,29.83,WNW,302,4.0,13.0,78,0.00,,---,0.00,VWS V14.00,2013-02-13 08:33:00,
2013-02-13 03:34:00,26.6,20.7,29.83,WNW,301,2.0,13.0,78,0.00,,---,0.00,VWS V14.00,2013-02-13 08:34:00,
2013-02-13 03:35:00,26.6,20.7,29.83,WNW,301,2.0,13.0,78,0.00,,---,0.00,VWS V14.00,2013-02-13 08:35:00,
2013-02-13 03:38:00,26.6,20.7,29.83,WNW,291,4.0,13.0,78,0.00,,---,0.00,VWS V14.00,2013-02-13 08:38:00,
2013-02-13 03:39:00,26.6,20.7,29.83,WNW,289,2.0,13.0,78,0.00,,---,0.00,VWS V14.00,2013-02-13 08:39:00,
2013-02-13 03:40:00,26.6,20.7,29.83,WNW,288,4.0,13.0,78,0.00,,---,0.00,VWS V14.00,2013-02-13 08:40:00,
2013-02-13 03:43:00,26.6,20.7,29.83,WNW,287,0.0,13.0,78,0.00,,---,0.00,VWS V14.00,2013-02-13 08:43:00,
2013-02-13 03:44:00,26.6,20.7,29.83,WNW,287,0.0,13.0,78,0.00,,---,0.00,VWS V14.00,2013-02-13 08:44:00,
2013-02-13 03:45:00,26.6,20.7,29.82,WNW,287,2.0,13.0,78,0.00,,---,0.00,VWS V14.00,2013-02-13 08:45:00,
2013-02-13 03:48:00,26.6,20.7,29.82,WNW,291,4.0,13.0,78,0.00,,---,0.00,VWS V14.00,2013-02-13 08:48:00,
2013-02-13 03:49:00,26.6,20.7,29.82,WNW,292,0.0,13.0,78,0.00,,---,0.00,VWS V14.00,2013-02-13 08:49:00,
2013-02-13 03:50:00,26.6,20.7,29.82,West,271,4.0,13.0,78,0.00,,---,0.00,VWS V14.00,2013-02-13 08:50:00,
2013-02-13 03:53:00,26.6,20.7,29.82,WNW,288,2.0,13.0,78,0.00,,---,0.00,VWS V14.00,2013-02-13 08:53:00,
2013-02-13 03:54:00,26.6,20.7,29.82,WNW,288,0.0,13.0,78,0.00,,---,0.00,VWS V14.00,2013-02-13 08:54:00,
2013-02-13 03:55:00,26.6,20.7,29.82,WNW,288,0.0,13.0,78,0.00,,---,0.00,VWS V14.00,2013-02-13 08:55:00,
2013-02-13 03:59:00,26.6,20.7,29.82,WNW,296,4.0,13.0,78,0.00,,---,0.00,VWS V14.00,2013-02-13 08:59:00,
2013-02-13 04:00:00,26.6,20.7,29.82,WNW,296,4.0,13.0,78,0.00,,---,0.00,VWS V14.00,2013-02-13 09:00:00,
2013-02-13 04:04:00,26.6,20.7,29.82,NW,305,0.0,6.0,78,0.00,,---,0.00,VWS V14.00,2013-02-13 09:04:00,
2013-02-13 04:05:00,26.6,20.7,29.82,NW,305,4.0,6.0,78,0.00,,---,0.00,VWS V14.00,2013-02-13 09:05:00,
2013-02-13 04:09:00,26.6,20.7,29.82,West,281,1.0,6.0,78,0.00,,---,0.00,VWS V14.00,2013-02-13 09:09:00,
2013-02-13 04:10:00,26.6,20.7,29.82,West,280,4.0,6.0,78,0.00,,---,0.00,VWS V14.00,2013-02-13 09:10:00,
2013-02-13 04:14:00,26.6,20.7,29.82,West,280,0.0,6.0,78,0.00,,---,0.00,VWS V14.00,2013-02-13 09:14:00,
2013-02-13 04:15:00,26.6,20.7,29.82,West,277,2.0,6.0,78,0.00,,---,0.00,VWS V14.00,2013-02-13 09:15:00,
2013-02-13 04:16:00,26.6,20.7,29.82,West,275,4.0,6.0,78,0.00,,---,0.00,VWS V14.00,2013-02-13 09:16:00,
2013-02-13 04:19:00,26.6,20.7,29.82,West,278,0.0,6.0,78,0.00,,---,0.00,VWS V14.00,2013-02-13 09:19:00,
2013-02-13 04:20:00,26.6,20.7,29.82,West,280,0.0,6.0,78,0.00,,---,0.00,VWS V14.00,2013-02-13 09:20:00,
2013-02-13 04:21:00,26.6,20.7,29.82,West,281,2.0,6.0,78,0.00,,---,0.00,VWS V14.00,2013-02-13 09:21:00,
2013-02-13 04:24:00,26.6,20.7,29.82,SW,223,7.0,7.0,78,0.00,,---,0.00,VWS V14.00,2013-02-13 09:24:00,
2013-02-13 04:25:00,26.6,20.7,29.82,SW,222,4.0,7.0,78,0.00,,---,0.00,VWS V14.00,2013-02-13 09:25:00,
2013-02-13 04:26:00,26.4,20.5,29.82,SW,222,2.0,7.0,78,0.00,,---,0.00,VWS V14.00,2013-02-13 09:26:00,
2013-02-13 04:29:00,26.4,20.5,29.82,West,281,7.0,10.0,78,0.00,,---,0.00,VWS V14.00,2013-02-13 09:29:00,
2013-02-13 04:30:00,26.4,20.5,29.82,WNW,284,6.0,10.0,78,0.00,,---,0.00,VWS V14.00,2013-02-13 09:30:00,
2013-02-13 04:31:00,26.4,20.5,29.82,WNW,289,6.0,10.0,78,0.00,,---,0.00,VWS V14.00,2013-02-13 09:31:00,
2013-02-13 04:34:00,26.4,20.5,29.82,WNW,292,6.0,10.0,78,0.00,,---,0.00,VWS V14.00,2013-02-13 09:34:00,
2013-02-13 04:35:00,26.4,20.5,29.82,WNW,291,2.0,10.0,78,0.00,,---,0.00,VWS V14.00,2013-02-13 09:35:00,
2013-02-13 04:36:00,26.4,20.5,29.82,WNW,291,4.0,10.0,78,0.00,,---,0.00,VWS V14.00,2013-02-13 09:36:00,
2013-02-13 04:39:00,26.4,20.5,29.82,WNW,298,7.0,10.0,78,0.00,,---,0.00,VWS V14.00,2013-02-13 09:39:00,
2013-02-13 04:40:00,26.4,20.5,29.82,WNW,289,4.0,10.0,78,0.00,,---,0.00,VWS V14.00,2013-02-13 09:40:00,
2013-02-13 04:41:00,26.4,20.5,29.82,WNW,294,4.0,10.0,78,0.00,,---,0.00,VWS V14.00,2013-02-13 09:41:00,
2013-02-13 04:44:00,26.4,20.5,29.82,West,278,2.0,10.0,78,0.00,,---,0.00,VWS V14.00,2013-02-13 09:44:00,
2013-02-13 04:45:00,26.4,20.5,29.82,West,270,4.0,10.0,78,0.00,,---,0.00,VWS V14.00,2013-02-13 09:45:00,
2013-02-13 04:46:00,26.4,20.5,29.82,WNW,287,8.0,10.0,78,0.00,,---,0.00,VWS V14.00,2013-02-13 09:46:00,
2013-02-13 04:49:00,26.4,20.5,29.82,NW,306,6.0,10.0,78,0.00,,---,0.00,VWS V14.00,2013-02-13 09:49:00,
2013-02-13 04:51:00,26.4,20.5,29.82,NW,305,2.0,10.0,78,0.00,,---,0.00,VWS V14.00,2013-02-13 09:51:00,
2013-02-13 04:54:00,26.4,20.5,29.82,WNW,296,4.0,10.0,78,0.00,,---,0.00,VWS V14.00,2013-02-13 09:54:00,
2013-02-13 04:56:00,26.4,20.5,29.82,WNW,296,4.0,10.0,78,0.00,,---,0.00,VWS V14.00,2013-02-13 09:56:00,
2013-02-13 05:00:00,26.4,20.5,29.82,West,280,2.0,10.0,78,0.00,,---,0.00,VWS V14.00,2013-02-13 10:00:00,
2013-02-13 05:01:00,26.4,20.8,29.82,West,271,6.0,6.0,79,0.00,,---,0.00,VWS V14.00,2013-02-13 10:01:00,
2013-02-13 05:05:00,26.4,20.5,29.82,WSW,237,6.0,9.0,78,0.00,,---,0.00,VWS V14.00,2013-02-13 10:05:00,
2013-02-13 05:06:00,26.4,20.8,29.82,West,268,7.0,9.0,79,0.00,,---,0.00,VWS V14.00,2013-02-13 10:06:00,
2013-02-13 05:10:00,26.4,20.5,29.82,WNW,288,4.0,9.0,78,0.00,,---,0.00,VWS V14.00,2013-02-13 10:10:00,
2013-02-13 05:11:00,26.4,20.5,29.82,WNW,287,2.0,9.0,78,0.00,,---,0.00,VWS V14.00,2013-02-13 10:11:00,
2013-02-13 05:15:00,26.4,20.5,29.82,SW,236,4.0,9.0,78,0.00,,---,0.00,VWS V14.00,2013-02-13 10:15:00,
2013-02-13 05:16:00,26.4,20.5,29.82,SW,236,4.0,9.0,78,0.00,,---,0.00,VWS V14.00,2013-02-13 10:16:00,
2013-02-13 05:20:00,26.4,20.5,29.82,NW,305,6.0,11.0,78,0.00,,---,0.00,VWS V14.00,2013-02-13 10:20:00,
2013-02-13 05:21:00,26.4,20.5,29.82,NW,308,4.0,11.0,78,0.00,,---,0.00,VWS V14.00,2013-02-13 10:21:00,
2013-02-13 05:25:00,26.4,20.5,29.82,WNW,289,7.0,11.0,78,0.00,,---,0.00,VWS V14.00,2013-02-13 10:25:00,
2013-02-13 05:26:00,26.4,20.5,29.82,West,260,2.0,11.0,78,0.00,,---,0.00,VWS V14.00,2013-02-13 10:26:00,
2013-02-13 05:31:00,26.4,20.8,29.81,WNW,284,6.0,11.0,79,0.00,,---,0.00,VWS V14.00,2013-02-13 10:31:00,
2013-02-13 05:32:00,26.4,20.8,29.81,WNW,287,2.0,11.0,79,0.00,,---,0.00,VWS V14.00,2013-02-13 10:32:00,
2013-02-13 05:36:00,26.4,20.8,29.81,NW,308,6.0,11.0,79,0.00,,---,0.00,VWS V14.00,2013-02-13 10:36:00,
2013-02-13 05:37:00,26.4,20.8,29.81,SW,229,6.0,11.0,79,0.00,,---,0.00,VWS V14.00,2013-02-13 10:37:00,
2013-02-13 05:41:00,26.4,20.8,29.81,NW,320,1.0,11.0,79,0.00,,---,0.00,VWS V14.00,2013-02-13 10:41:00,
2013-02-13 05:42:00,26.4,20.8,29.81,NNW,346,4.0,11.0,79,0.00,,---,0.00,VWS V14.00,2013-02-13 10:42:00,
2013-02-13 05:46:00,26.3,20.4,29.81,NNW,333,4.0,11.0,78,0.00,,---,0.00,VWS V14.00,2013-02-13 10:46:00,
2013-02-13 05:47:00,26.3,20.4,29.81,NNW,332,6.0,11.0,78,0.00,,---,0.00,VWS V14.00,2013-02-13 10:47:00,
2013-02-13 05:51:00,26.3,20.4,29.81,NW,320,0.0,11.0,78,0.00,,---,0.00,VWS V14.00,2013-02-13 10:51:00,
2013-02-13 05:52:00,26.3,20.4,29.81,NW,320,4.0,11.0,78,0.00,,---,0.00,VWS V14.00,2013-02-13 10:52:00,
2013-02-13 05:56:00,26.3,20.7,29.81,NW,319,4.0,11.0,79,0.00,,---,0.00,VWS V14.00,2013-02-13 10:56:00,
2013-02-13 05:57:00,26.3,20.7,29.81,NW,322,2.0,11.0,79,0.00,,---,0.00,VWS V14.00,2013-02-13 10:57:00,
2013-02-13 06:01:00,26.3,20.4,29.81,NW,325,2.0,2.0,78,0.00,,---,0.00,VWS V14.00,2013-02-13 11:01:00,
2013-02-13 06:02:00,26.3,20.4,29.81,NW,325,2.0,4.0,78,0.00,,---,0.00,VWS V14.00,2013-02-13 11:02:00,
2013-02-13 06:06:00,26.3,20.4,29.81,North,357,0.0,6.0,78,0.00,,---,0.00,VWS V14.00,2013-02-13 11:06:00,
2013-02-13 06:07:00,26.3,20.4,29.81,North,357,1.0,6.0,78,0.00,,---,0.00,VWS V14.00,2013-02-13 11:07:00,
2013-02-13 06:11:00,26.3,20.4,29.81,North,357,0.0,6.0,78,0.00,,---,0.00,VWS V14.00,2013-02-13 11:11:00,
2013-02-13 06:12:00,26.1,20.2,29.81,North,357,0.0,6.0,78,0.00,,---,0.00,VWS V14.00,2013-02-13 11:12:00,
2013-02-13 06:16:00,26.3,20.4,29.81,North,357,0.0,6.0,78,0.00,,---,0.00,VWS V14.00,2013-02-13 11:16:00,
2013-02-13 06:17:00,26.3,20.4,29.81,North,357,0.0,6.0,78,0.00,,---,0.00,VWS V14.00,2013-02-13 11:17:00,
2013-02-13 06:21:00,26.3,20.4,29.81,NNW,346,1.0,6.0,78,0.00,,---,0.00,VWS V14.00,2013-02-13 11:21:00,
2013-02-13 06:22:00,26.3,20.4,29.81,NNW,346,0.0,6.0,78,0.00,,---,0.00,VWS V14.00,2013-02-13 11:22:00,
2013-02-13 06:23:00,26.3,20.4,29.81,NNW,343,6.0,6.0,78,0.00,,---,0.00,VWS V14.00,2013-02-13 11:23:00,
2013-02-13 06:26:00,26.3,20.7,29.81,WNW,296,4.0,8.0,79,0.00,,---,0.00,VWS V14.00,2013-02-13 11:26:00,
2013-02-13 06:27:00,26.3,20.7,29.81,WNW,301,4.0,8.0,79,0.00,,---,0.00,VWS V14.00,2013-02-13 11:27:00,
2013-02-13 06:28:00,26.3,20.7,29.81,WNW,301,2.0,8.0,79,0.00,,---,0.00,VWS V14.00,2013-02-13 11:28:00,
2013-02-13 06:32:00,26.3,20.7,29.80,WNW,301,0.0,8.0,79,0.00,,---,0.00,VWS V14.00,2013-02-13 11:32:00,
2013-02-13 06:33:00,26.3,20.7,29.80,WNW,301,4.0,8.0,79,0.00,,---,0.00,VWS V14.00,2013-02-13 11:33:00,
2013-02-13 06:37:00,26.3,20.7,29.80,WNW,299,0.0,8.0,79,0.00,,---,0.00,VWS V14.00,2013-02-13 11:37:00,
2013-02-13 06:38:00,26.3,20.7,29.80,WNW,298,2.0,8.0,79,0.00,,---,0.00,VWS V14.00,2013-02-13 11:38:00,
2013-02-13 06:42:00,26.1,20.5,29.80,WNW,288,6.0,8.0,79,0.00,,---,0.00,VWS V14.00,2013-02-13 11:42:00,
2013-02-13 06:43:00,26.1,20.5,29.80,WNW,287,2.0,8.0,79,0.00,,---,0.00,VWS V14.00,2013-02-13 11:43:00,
2013-02-13 06:47:00,26.1,20.5,29.80,WNW,287,0.0,8.0,79,0.00,,---,0.00,VWS V14.00,2013-02-13 11:47:00,
2013-02-13 06:48:00,26.1,20.5,29.80,WNW,287,0.0,8.0,79,0.00,,---,0.00,VWS V14.00,2013-02-13 11:48:00,
2013-02-13 06:52:00,26.1,20.5,29.80,WNW,287,2.0,8.0,79,0.00,,---,0.00,VWS V14.00,2013-02-13 11:52:00,
2013-02-13 06:53:00,26.1,20.5,29.80,WNW,287,1.0,8.0,79,0.00,,---,0.00,VWS V14.00,2013-02-13 11:53:00,
2013-02-13 06:57:00,26.1,20.5,29.80,WNW,287,0.0,8.0,79,0.00,,---,0.00,VWS V14.00,2013-02-13 11:57:00,
2013-02-13 06:58:00,26.1,20.5,29.80,WNW,287,0.0,8.0,79,0.00,,---,0.00,VWS V14.00,2013-02-13 11:58:00,
2013-02-13 07:02:00,26.1,20.5,29.80,WNW,287,0.0,2.0,79,0.00,,---,0.00,VWS V14.00,2013-02-13 12:02:00,
2013-02-13 07:03:00,26.1,20.5,29.80,WNW,287,0.0,2.0,79,0.00,,---,0.00,VWS V14.00,2013-02-13 12:03:00,
2013-02-13 07:08:00,26.1,20.5,29.80,WNW,291,0.0,2.0,79,0.00,,---,0.00,VWS V14.00,2013-02-13 12:08:00,
2013-02-13 07:13:00,26.1,20.5,29.80,NW,306,0.0,2.0,79,0.00,,---,0.00,VWS V14.00,2013-02-13 12:13:00,
2013-02-13 07:14:00,26.1,20.5,29.80,NW,306,0.0,2.0,79,0.00,,---,0.00,VWS V14.00,2013-02-13 12:14:00,
2013-02-13 07:18:00,26.1,20.5,29.79,NW,306,0.0,2.0,79,0.00,,---,0.00,VWS V14.00,2013-02-13 12:18:00,
2013-02-13 07:19:00,26.1,20.5,29.79,NW,306,0.0,2.0,79,0.00,,---,0.00,VWS V14.00,2013-02-13 12:19:00,
2013-02-13 07:23:00,26.1,20.5,29.79,NW,306,0.0,2.0,79,0.00,,---,0.00,VWS V14.00,2013-02-13 12:23:00,
2013-02-13 07:24:00,26.1,20.5,29.79,NW,306,0.0,2.0,79,0.00,,---,0.00,VWS V14.00,2013-02-13 12:24:00,
2013-02-13 07:28:00,26.1,20.5,29.79,NW,306,0.0,2.0,79,0.00,,---,0.00,VWS V14.00,2013-02-13 12:28:00,
2013-02-13 07:29:00,26.1,20.5,29.79,NW,306,0.0,2.0,79,0.00,,---,0.00,VWS V14.00,2013-02-13 12:29:00,
2013-02-13 07:33:00,26.1,20.5,29.78,NW,306,0.0,2.0,79,0.00,,---,0.00,VWS V14.00,2013-02-13 12:33:00,
2013-02-13 07:34:00,26.1,20.5,29.78,NW,306,0.0,2.0,79,0.00,,---,0.00,VWS V14.00,2013-02-13 12:34:00,
2013-02-13 07:38:00,26.1,20.5,29.78,NW,306,0.0,2.0,79,0.00,,---,0.00,VWS V14.00,2013-02-13 12:38:00,
2013-02-13 07:39:00,26.1,20.5,29.78,NW,306,0.0,2.0,79,0.00,,---,0.00,VWS V14.00,2013-02-13 12:39:00,
2013-02-13 07:43:00,26.1,20.5,29.78,NW,306,0.0,2.0,79,0.00,,---,0.00,VWS V14.00,2013-02-13 12:43:00,
2013-02-13 07:44:00,26.1,20.5,29.78,NW,306,0.0,2.0,79,0.00,,---,0.00,VWS V14.00,2013-02-13 12:44:00,
2013-02-13 07:49:00,26.1,20.5,29.78,NW,306,0.0,2.0,79,0.00,,---,0.00,VWS V14.00,2013-02-13 12:49:00,
2013-02-13 07:54:00,26.1,20.5,29.78,NW,306,0.0,2.0,79,0.00,,---,0.00,VWS V14.00,2013-02-13 12:54:00,
2013-02-13 07:59:00,26.1,20.5,29.78,NW,306,0.0,2.0,79,0.00,,---,0.00,VWS V14.00,2013-02-13 12:59:00,
2013-02-13 08:04:00,26.1,20.5,29.78,NW,306,0.0,0.0,79,0.00,,---,0.00,VWS V14.00,2013-02-13 13:04:00,
2013-02-13 08:09:00,26.1,20.5,29.78,North,0,0.0,4.0,79,0.00,,---,0.00,VWS V14.00,2013-02-13 13:09:00,
2013-02-13 08:14:00,26.1,20.5,29.78,NE,34,1.0,4.0,79,0.00,,---,0.00,VWS V14.00,2013-02-13 13:14:00,
2013-02-13 08:19:00,26.1,20.5,29.78,NNE,24,0.0,4.0,79,0.00,,---,0.00,VWS V14.00,2013-02-13 13:19:00,
2013-02-13 08:20:00,26.1,20.5,29.78,NNE,24,0.0,4.0,79,0.00,,---,0.00,VWS V14.00,2013-02-13 13:20:00,
2013-02-13 08:24:00,26.1,20.5,29.78,NNE,24,0.0,4.0,79,0.00,,---,0.00,VWS V14.00,2013-02-13 13:24:00,
2013-02-13 08:25:00,26.1,20.5,29.78,NNE,24,0.0,4.0,79,0.00,,---,0.00,VWS V14.00,2013-02-13 13:25:00,
2013-02-13 08:29:00,26.1,20.5,29.78,ESE,103,0.0,4.0,79,0.00,,---,0.00,VWS V14.00,2013-02-13 13:29:00,
2013-02-13 08:30:00,26.1,20.5,29.78,ESE,103,2.0,4.0,79,0.00,,---,0.00,VWS V14.00,2013-02-13 13:30:00,
2013-02-13 08:34:00,26.3,20.7,29.78,ESE,103,0.0,4.0,79,0.00,,---,0.00,VWS V14.00,2013-02-13 13:34:00,
2013-02-13 08:35:00,26.3,20.7,29.78,ESE,103,0.0,4.0,79,0.00,,---,0.00,VWS V14.00,2013-02-13 13:35:00,
2013-02-13 08:39:00,26.3,20.7,29.78,ESE,106,0.0,4.0,79,0.00,,---,0.00,VWS V14.00,2013-02-13 13:39:00,
2013-02-13 08:40:00,26.3,20.7,29.78,ESE,106,2.0,4.0,79,0.00,,---,0.00,VWS V14.00,2013-02-13 13:40:00,
2013-02-13 08:45:00,26.4,20.8,29.78,ESE,119,0.0,6.0,79,0.00,,---,0.00,VWS V14.00,2013-02-13 13:45:00,
2013-02-13 08:50:00,26.3,20.7,29.78,ESE,120,0.0,6.0,79,0.00,,---,0.00,VWS V14.00,2013-02-13 13:50:00,
2013-02-13 08:55:00,26.3,20.7,29.78,ESE,120,0.0,6.0,79,0.00,,---,0.00,VWS V14.00,2013-02-13 13:55:00,
2013-02-13 09:00:00,26.3,20.7,29.78,SSE,150,0.0,6.0,79,0.00,,---,0.00,VWS V14.00,2013-02-13 14:00:00,
2013-02-13 09:01:00,26.3,20.7,29.78,SSE,150,0.0,0.0,79,0.00,,---,0.00,VWS V14.00,2013-02-13 14:01:00,
2013-02-13 09:05:00,26.3,20.7,29.78,SSE,150,0.0,0.0,79,0.00,,---,0.00,VWS V14.00,2013-02-13 14:05:00,
2013-02-13 09:06:00,26.3,20.7,29.78,SSE,150,0.0,0.0,79,0.00,,---,0.00,VWS V14.00,2013-02-13 14:06:00,
2013-02-13 09:10:00,26.3,20.7,29.78,SSE,150,0.0,0.0,79,0.00,,---,0.00,VWS V14.00,2013-02-13 14:10:00,
2013-02-13 09:11:00,26.4,20.8,29.78,SSE,150,0.0,0.0,79,0.00,,---,0.00,VWS V14.00,2013-02-13 14:11:00,
2013-02-13 09:15:00,26.4,20.8,29.77,SSE,150,0.0,0.0,79,0.00,,---,0.00,VWS V14.00,2013-02-13 14:15:00,
2013-02-13 09:16:00,26.4,20.8,29.77,SSE,150,0.0,0.0,79,0.00,,---,0.00,VWS V14.00,2013-02-13 14:16:00,
2013-02-13 09:20:00,26.6,21.0,29.77,SSE,150,0.0,0.0,79,0.00,,---,0.00,VWS V14.00,2013-02-13 14:20:00,
2013-02-13 09:21:00,26.6,21.0,29.77,SSE,150,0.0,0.0,79,0.00,,---,0.00,VWS V14.00,2013-02-13 14:21:00,
2013-02-13 09:25:00,26.6,21.0,29.77,SSE,150,0.0,0.0,79,0.00,,---,0.00,VWS V14.00,2013-02-13 14:25:00,
2013-02-13 09:26:00,26.6,21.0,29.77,SSE,150,0.0,0.0,79,0.00,,---,0.00,VWS V14.00,2013-02-13 14:26:00,
2013-02-13 09:30:00,26.7,21.1,29.76,SSE,150,0.0,0.0,79,0.00,,---,0.00,VWS V14.00,2013-02-13 14:30:00,
2013-02-13 09:31:00,26.7,21.1,29.76,SSE,150,0.0,0.0,79,0.00,,---,0.00,VWS V14.00,2013-02-13 14:31:00,
2013-02-13 09:35:00,26.9,21.3,29.76,SSE,150,0.0,0.0,79,0.00,,---,0.00,VWS V14.00,2013-02-13 14:35:00,
2013-02-13 09:36:00,26.9,21.3,29.76,SSE,150,0.0,0.0,79,0.00,,---,0.00,VWS V14.00,2013-02-13 14:36:00,
2013-02-13 09:40:00,27.0,21.4,29.76,SSE,150,0.0,0.0,79,0.00,,---,0.00,VWS V14.00,2013-02-13 14:40:00,
2013-02-13 09:41:00,27.0,21.4,29.76,SSE,150,0.0,0.0,79,0.00,,---,0.00,VWS V14.00,2013-02-13 14:41:00,
2013-02-13 09:42:00,27.0,21.4,29.76,SSE,150,0.0,0.0,79,0.00,,---,0.00,VWS V14.00,2013-02-13 14:42:00,
2013-02-13 09:46:00,27.0,21.4,29.76,SSE,150,0.0,1.0,79,0.00,,---,0.00,VWS V14.00,2013-02-13 14:46:00,
2013-02-13 09:47:00,27.0,21.4,29.76,SSE,151,0.0,4.0,79,0.00,,---,0.00,VWS V14.00,2013-02-13 14:47:00,
2013-02-13 09:51:00,27.2,21.6,29.76,SSE,151,0.0,4.0,79,0.00,,---,0.00,VWS V14.00,2013-02-13 14:51:00,
2013-02-13 09:52:00,27.2,21.6,29.76,SSE,151,0.0,4.0,79,0.00,,---,0.00,VWS V14.00,2013-02-13 14:52:00,
2013-02-13 09:56:00,27.3,21.7,29.76,SE,127,0.0,4.0,79,0.00,,---,0.00,VWS V14.00,2013-02-13 14:56:00,
2013-02-13 09:57:00,27.3,21.7,29.76,SE,127,0.0,4.0,79,0.00,,---,0.00,VWS V14.00,2013-02-13 14:57:00,
2013-02-13 10:01:00,27.5,21.9,29.76,SE,127,0.0,0.0,79,0.00,,---,0.00,VWS V14.00,2013-02-13 15:01:00,
2013-02-13 10:02:00,27.5,21.9,29.76,SE,127,0.0,0.0,79,0.00,,---,0.00,VWS V14.00,2013-02-13 15:02:00,
2013-02-13 10:06:00,27.5,21.9,29.76,SE,141,4.0,7.0,79,0.00,,---,0.00,VWS V14.00,2013-02-13 15:06:00,
2013-02-13 10:07:00,27.6,22.0,29.76,SE,144,2.0,7.0,79,0.00,,---,0.00,VWS V14.00,2013-02-13 15:07:00,
2013-02-13 10:11:00,27.6,21.6,29.76,SSE,162,0.0,7.0,78,0.00,,---,0.00,VWS V14.00,2013-02-13 15:11:00,
2013-02-13 10:12:00,27.6,21.6,29.76,SSE,162,0.0,7.0,78,0.00,,---,0.00,VWS V14.00,2013-02-13 15:12:00,
2013-02-13 10:16:00,27.5,21.2,29.75,SSE,162,4.0,7.0,77,0.00,,---,0.00,VWS V14.00,2013-02-13 15:16:00,
2013-02-13 10:17:00,27.5,21.2,29.75,SSE,162,2.0,7.0,77,0.00,,---,0.00,VWS V14.00,2013-02-13 15:17:00,
2013-02-13 10:21:00,27.5,21.2,29.75,South,186,0.0,7.0,77,0.00,,---,0.00,VWS V14.00,2013-02-13 15:21:00,
2013-02-13 10:22:00,27.5,21.2,29.75,South,186,0.0,7.0,77,0.00,,---,0.00,VWS V14.00,2013-02-13 15:22:00,
2013-02-13 10:26:00,27.5,21.5,29.75,SE,143,7.0,7.0,78,0.00,,---,0.00,VWS V14.00,2013-02-13 15:26:00,
2013-02-13 10:27:00,27.6,21.6,29.75,SE,144,1.0,7.0,78,0.00,,---,0.00,VWS V14.00,2013-02-13 15:27:00,
2013-02-13 10:28:00,27.6,21.6,29.75,SSE,150,2.0,7.0,78,0.00,,---,0.00,VWS V14.00,2013-02-13 15:28:00,
2013-02-13 10:31:00,27.8,21.5,29.76,SSW,202,2.0,9.0,77,0.00,,---,0.00,VWS V14.00,2013-02-13 15:31:00,
2013-02-13 10:32:00,27.6,21.4,29.76,SSE,155,0.0,9.0,77,0.00,,---,0.00,VWS V14.00,2013-02-13 15:32:00,
2013-02-13 10:33:00,27.6,21.4,29.76,SSE,162,4.0,9.0,77,0.00,,---,0.00,VWS V14.00,2013-02-13 15:33:00,
2013-02-13 10:36:00,27.6,21.4,29.76,SSE,161,1.0,9.0,77,0.00,,---,0.00,VWS V14.00,2013-02-13 15:36:00,
2013-02-13 10:37:00,27.6,21.4,29.76,SE,145,0.0,9.0,77,0.00,,---,0.00,VWS V14.00,2013-02-13 15:37:00,
2013-02-13 10:38:00,27.6,21.4,29.76,SE,145,0.0,9.0,77,0.00,,---,0.00,VWS V14.00,2013-02-13 15:38:00,
2013-02-13 10:41:00,27.6,21.4,29.76,SSE,162,0.0,9.0,77,0.00,,---,0.00,VWS V14.00,2013-02-13 15:41:00,
2013-02-13 10:43:00,27.8,21.5,29.76,SSE,162,0.0,9.0,77,0.00,,---,0.00,VWS V14.00,2013-02-13 15:43:00,
2013-02-13 10:44:00,27.8,21.5,29.76,SSE,162,4.0,9.0,77,0.00,,---,0.00,VWS V14.00,2013-02-13 15:44:00,
2013-02-13 10:46:00,27.9,21.6,29.76,South,191,6.0,9.0,77,0.00,,---,0.00,VWS V14.00,2013-02-13 15:46:00,
2013-02-13 10:48:00,27.9,21.6,29.76,SSW,198,2.0,9.0,77,0.00,,---,0.00,VWS V14.00,2013-02-13 15:48:00,
2013-02-13 10:49:00,27.9,21.6,29.76,South,175,4.0,9.0,77,0.00,,---,0.00,VWS V14.00,2013-02-13 15:49:00,
2013-02-13 10:51:00,27.9,21.6,29.76,SSW,205,1.0,9.0,77,0.00,,---,0.00,VWS V14.00,2013-02-13 15:51:00,
2013-02-13 10:53:00,27.9,21.6,29.76,SSW,205,4.0,9.0,77,0.00,,---,0.00,VWS V14.00,2013-02-13 15:53:00,
2013-02-13 10:54:00,27.9,21.6,29.76,SW,216,7.0,10.0,77,0.00,,---,0.00,VWS V14.00,2013-02-13 15:54:00,
2013-02-13 10:56:00,27.9,21.6,29.76,SSW,202,6.0,10.0,77,0.00,,---,0.00,VWS V14.00,2013-02-13 15:56:00,
2013-02-13 10:58:00,27.9,21.6,29.76,SW,220,8.0,10.0,77,0.00,,---,0.00,VWS V14.00,2013-02-13 15:58:00,
2013-02-13 10:59:00,27.9,21.6,29.76,SSW,209,7.0,10.0,77,0.00,,---,0.00,VWS V14.00,2013-02-13 15:59:00,
2013-02-13 11:01:00,28.1,21.8,29.77,SSE,161,0.0,6.0,77,0.00,,---,0.00,VWS V14.00,2013-02-13 16:01:00,
2013-02-13 11:03:00,28.1,21.8,29.77,South,182,4.0,7.0,77,0.00,,---,0.00,VWS V14.00,2013-02-13 16:03:00,
2013-02-13 11:04:00,28.2,22.2,29.77,South,189,2.0,9.0,78,0.00,,---,0.00,VWS V14.00,2013-02-13 16:04:00,
2013-02-13 11:06:00,28.2,21.9,29.77,SSE,155,0.0,9.0,77,0.00,,---,0.00,VWS V14.00,2013-02-13 16:06:00,
2013-02-13 11:08:00,28.5,22.2,29.77,South,175,1.0,9.0,77,0.00,,---,0.00,VWS V14.00,2013-02-13 16:08:00,
2013-02-13 11:09:00,28.5,22.2,29.77,South,175,2.0,9.0,77,0.00,,---,0.00,VWS V14.00,2013-02-13 16:09:00,
2013-02-13 11:12:00,28.7,22.4,29.77,South,179,0.0,9.0,77,0.00,,---,0.00,VWS V14.00,2013-02-13 16:12:00,
2013-02-13 11:13:00,28.7,22.4,29.77,SSW,196,6.0,9.0,77,0.00,,---,0.00,VWS V14.00,2013-02-13 16:13:00,
2013-02-13 11:14:00,28.7,22.4,29.77,SSE,162,6.0,9.0,77,0.00,,---,0.00,VWS V14.00,2013-02-13 16:14:00,
2013-02-13 11:17:00,28.7,22.4,29.77,South,185,0.0,9.0,77,0.00,,---,0.00,VWS V14.00,2013-02-13 16:17:00,
2013-02-13 11:18:00,28.7,22.4,29.77,South,185,0.0,9.0,77,0.00,,---,0.00,VWS V14.00,2013-02-13 16:18:00,
2013-02-13 11:19:00,28.8,22.5,29.77,SW,234,4.0,9.0,77,0.00,,---,0.00,VWS V14.00,2013-02-13 16:19:00,
2013-02-13 11:22:00,29.0,22.7,29.77,WSW,244,0.0,9.0,77,0.00,,---,0.00,VWS V14.00,2013-02-13 16:22:00,
2013-02-13 11:23:00,29.1,22.8,29.77,SSW,195,0.0,9.0,77,0.00,,---,0.00,VWS V14.00,2013-02-13 16:23:00,
2013-02-13 11:24:00,29.4,23.1,29.77,SSE,151,2.0,9.0,77,0.00,,---,0.00,VWS V14.00,2013-02-13 16:24:00,
2013-02-13 11:27:00,29.5,23.2,29.77,SE,144,2.0,9.0,77,0.00,,---,0.00,VWS V14.00,2013-02-13 16:27:00,
2013-02-13 11:28:00,29.5,23.2,29.77,South,184,1.0,9.0,77,0.00,,---,0.00,VWS V14.00,2013-02-13 16:28:00,
2013-02-13 11:29:00,29.5,22.9,29.77,SE,144,6.0,9.0,76,0.00,,---,0.00,VWS V14.00,2013-02-13 16:29:00,
2013-02-13 11:32:00,29.7,23.1,29.77,South,179,4.0,9.0,76,0.00,,---,0.00,VWS V14.00,2013-02-13 16:32:00,
2013-02-13 11:33:00,29.8,23.2,29.77,SW,223,8.0,9.0,76,0.00,,---,0.00,VWS V14.00,2013-02-13 16:33:00,
2013-02-13 11:34:00,29.8,23.2,29.77,South,181,8.0,9.0,76,0.00,,---,0.00,VWS V14.00,2013-02-13 16:34:00,
2013-02-13 11:37:00,29.8,22.9,29.77,SSW,209,8.0,10.0,75,0.00,,---,0.00,VWS V14.00,2013-02-13 16:37:00,
2013-02-13 11:38:00,29.8,22.9,29.77,SSW,213,8.0,10.0,75,0.00,,---,0.00,VWS V14.00,2013-02-13 16:38:00,
2013-02-13 11:40:00,29.8,22.9,29.77,SSW,205,8.0,10.0,75,0.00,,---,0.00,VWS V14.00,2013-02-13 16:40:00,
2013-02-13 11:42:00,29.8,22.9,29.77,SSW,212,7.0,10.0,75,0.00,,---,0.00,VWS V14.00,2013-02-13 16:42:00,
2013-02-13 11:43:00,29.8,22.9,29.77,WSW,244,7.0,10.0,75,0.00,,---,0.00,VWS V14.00,2013-02-13 16:43:00,
2013-02-13 11:45:00,29.8,22.9,29.77,SSW,213,8.0,10.0,75,0.00,,---,0.00,VWS V14.00,2013-02-13 16:45:00,
2013-02-13 11:47:00,29.5,22.6,29.77,SSW,196,2.0,10.0,75,0.00,,---,0.00,VWS V14.00,2013-02-13 16:47:00,
2013-02-13 11:48:00,29.5,22.6,29.77,SSE,154,0.0,10.0,75,0.00,,---,0.00,VWS V14.00,2013-02-13 16:48:00,
2013-02-13 11:49:00,29.5,22.6,29.77,SSW,192,6.0,10.0,75,0.00,,---,0.00,VWS V14.00,2013-02-13 16:49:00,
2013-02-13 11:50:00,29.7,22.8,29.77,SW,216,4.0,10.0,75,0.00,,---,0.00,VWS V14.00,2013-02-13 16:50:00,
2013-02-13 11:52:00,29.8,23.2,29.77,SSW,195,6.0,10.0,76,0.00,,---,0.00,VWS V14.00,2013-02-13 16:52:00,
2013-02-13 11:53:00,29.8,22.9,29.77,SSW,195,1.0,10.0,75,0.00,,---,0.00,VWS V14.00,2013-02-13 16:53:00,
2013-02-13 11:54:00,29.8,22.9,29.77,SSW,195,2.0,10.0,75,0.00,,---,0.00,VWS V14.00,2013-02-13 16:54:00,
2013-02-13 11:55:00,29.8,22.9,29.77,SSW,192,0.0,10.0,75,0.00,,---,0.00,VWS V14.00,2013-02-13 16:55:00,
2013-02-13 11:57:00,29.8,22.9,29.77,SSW,193,0.0,10.0,75,0.00,,---,0.00,VWS V14.00,2013-02-13 16:57:00,
2013-02-13 11:58:00,30.0,23.0,29.77,SW,227,6.0,10.0,75,0.00,,---,0.00,VWS V14.00,2013-02-13 16:58:00,
2013-02-13 11:59:00,30.0,23.0,29.77,West,270,4.0,10.0,75,0.00,,---,0.00,VWS V14.00,2013-02-13 16:59:00,
2013-02-13 12:00:00,30.0,23.0,29.76,WNW,282,2.0,10.0,75,0.00,,---,0.00,VWS V14.00,2013-02-13 17:00:00,
2013-02-13 12:02:00,30.1,23.1,29.76,SW,227,6.0,7.0,75,0.00,,---,0.00,VWS V14.00,2013-02-13 17:02:00,
2013-02-13 12:03:00,30.1,23.1,29.76,WNW,294,1.0,7.0,75,0.00,,---,0.00,VWS V14.00,2013-02-13 17:03:00,
2013-02-13 12:04:00,30.1,23.1,29.76,WNW,294,0.0,7.0,75,0.00,,---,0.00,VWS V14.00,2013-02-13 17:04:00,
2013-02-13 12:05:00,30.1,23.1,29.76,WNW,284,0.0,7.0,75,0.00,,---,0.00,VWS V14.00,2013-02-13 17:05:00,
2013-02-13 12:07:00,30.3,23.3,29.76,WSW,254,6.0,8.0,75,0.00,,---,0.00,VWS V14.00,2013-02-13 17:07:00,
2013-02-13 12:09:00,30.4,23.8,29.76,SSW,210,1.0,9.0,76,0.00,,---,0.00,VWS V14.00,2013-02-13 17:09:00,
2013-02-13 12:10:00,30.4,23.4,29.76,SW,229,2.0,9.0,75,0.00,,---,0.00,VWS V14.00,2013-02-13 17:10:00,
2013-02-13 12:12:00,30.6,23.6,29.76,SW,229,0.0,9.0,75,0.00,,---,0.00,VWS V14.00,2013-02-13 17:12:00,
2013-02-13 12:14:00,30.6,23.6,29.76,SW,229,0.0,9.0,75,0.00,,---,0.00,VWS V14.00,2013-02-13 17:14:00,
2013-02-13 12:15:00,30.7,23.7,29.75,WNW,287,1.0,9.0,75,0.00,,---,0.00,VWS V14.00,2013-02-13 17:15:00,
2013-02-13 12:17:00,30.9,23.9,29.75,SSW,200,2.0,9.0,75,0.00,,---,0.00,VWS V14.00,2013-02-13 17:17:00,
2013-02-13 12:19:00,31.0,24.0,29.75,SW,220,8.0,9.0,75,0.00,,---,0.00,VWS V14.00,2013-02-13 17:19:00,
2013-02-13 12:20:00,31.0,23.7,29.75,SSW,209,2.0,9.0,74,0.00,,---,0.00,VWS V14.00,2013-02-13 17:20:00,
2013-02-13 12:22:00,31.2,24.2,29.75,SSW,209,0.0,9.0,75,0.00,,---,0.00,VWS V14.00,2013-02-13 17:22:00,
2013-02-13 12:24:00,31.3,24.3,29.75,SSW,206,6.0,9.0,75,0.00,,---,0.00,VWS V14.00,2013-02-13 17:24:00,
2013-02-13 12:25:00,31.3,24.0,29.75,SW,223,8.0,10.0,74,0.00,,---,0.00,VWS V14.00,2013-02-13 17:25:00,
2013-02-13 12:26:00,31.3,24.0,29.75,SW,230,8.0,10.0,74,0.00,,---,0.00,VWS V14.00,2013-02-13 17:26:00,
2013-02-13 12:27:00,31.5,24.2,29.75,SSW,212,11.0,13.0,74,0.00,,---,0.00,VWS V14.00,2013-02-13 17:27:00,
2013-02-13 12:29:00,31.5,23.9,29.75,SSW,199,4.0,13.0,73,0.00,,---,0.00,VWS V14.00,2013-02-13 17:29:00,
2013-02-13 12:30:00,31.6,24.0,29.75,SSW,199,4.0,13.0,73,0.00,,---,0.00,VWS V14.00,2013-02-13 17:30:00,
2013-02-13 12:31:00,31.6,24.0,29.75,SW,222,8.0,13.0,73,0.00,,---,0.00,VWS V14.00,2013-02-13 17:31:00,
2013-02-13 12:33:00,31.8,24.1,29.75,SSW,208,4.0,13.0,73,0.00,,---,0.00,VWS V14.00,2013-02-13 17:33:00,
2013-02-13 12:34:00,31.8,24.1,29.75,SSW,209,6.0,13.0,73,0.00,,---,0.00,VWS V14.00,2013-02-13 17:34:00,
2013-02-13 12:35:00,31.8,24.1,29.75,SSW,209,4.0,13.0,73,0.00,,---,0.00,VWS V14.00,2013-02-13 17:35:00,
2013-02-13 12:36:00,31.9,24.2,29.75,SW,234,0.0,13.0,73,0.00,,---,0.00,VWS V14.00,2013-02-13 17:36:00,
2013-02-13 12:38:00,31.9,23.9,29.75,SSW,200,4.0,13.0,72,0.00,,---,0.00,VWS V14.00,2013-02-13 17:38:00,
2013-02-13 12:39:00,32.1,24.1,29.75,SSW,213,7.0,13.0,72,0.00,,---,0.00,VWS V14.00,2013-02-13 17:39:00,
2013-02-13 12:40:00,32.1,24.1,29.75,SW,216,7.0,13.0,72,0.00,,---,0.00,VWS V14.00,2013-02-13 17:40:00,
2013-02-13 12:41:00,32.2,24.2,29.75,SSW,209,6.0,13.0,72,0.00,,---,0.00,VWS V14.00,2013-02-13 17:41:00,
2013-02-13 12:43:00,32.4,24.7,29.75,SW,236,0.0,13.0,73,0.00,,---,0.00,VWS V14.00,2013-02-13 17:43:00,
2013-02-13 12:44:00,32.5,24.8,29.75,SW,219,0.0,13.0,73,0.00,,---,0.00,VWS V14.00,2013-02-13 17:44:00,
2013-02-13 12:45:00,32.5,24.5,29.74,SSW,203,0.0,13.0,72,0.00,,---,0.00,VWS V14.00,2013-02-13 17:45:00,
2013-02-13 12:46:00,32.7,24.7,29.74,WSW,243,6.0,13.0,72,0.00,,---,0.00,VWS V14.00,2013-02-13 17:46:00,
2013-02-13 12:48:00,32.8,24.8,29.74,SW,232,6.0,13.0,72,0.00,,---,0.00,VWS V14.00,2013-02-13 17:48:00,
2013-02-13 12:49:00,32.9,24.5,29.74,SSW,198,0.0,13.0,71,0.00,,---,0.00,VWS V14.00,2013-02-13 17:49:00,
2013-02-13 12:50:00,32.9,24.5,29.74,South,189,1.0,13.0,71,0.00,,---,0.00,VWS V14.00,2013-02-13 17:50:00,
2013-02-13 12:52:00,33.1,24.7,29.74,SW,226,4.0,13.0,71,0.00,,---,0.00,VWS V14.00,2013-02-13 17:52:00,
2013-02-13 12:53:00,33.2,24.5,29.74,South,179,6.0,13.0,70,0.00,,---,0.00,VWS V14.00,2013-02-13 17:53:00,
2013-02-13 12:54:00,33.4,25.0,29.74,South,169,2.0,13.0,71,0.00,,---,0.00,VWS V14.00,2013-02-13 17:54:00,
2013-02-13 12:55:00,33.5,24.8,29.74,South,179,0.0,13.0,70,0.00,,---,0.00,VWS V14.00,2013-02-13 17:55:00,
2013-02-13 12:56:00,33.5,24.8,29.74,South,179,0.0,13.0,70,0.00,,---,0.00,VWS V14.00,2013-02-13 17:56:00,
2013-02-13 12:58:00,33.8,25.1,29.74,SW,226,7.0,13.0,70,0.00,,---,0.00,VWS V14.00,2013-02-13 17:58:00,
2013-02-13 12:59:00,33.8,25.1,29.73,SW,232,1.0,13.0,70,0.00,,---,0.00,VWS V14.00,2013-02-13 17:59:00,
2013-02-13 13:00:00,33.8,25.1,29.73,SW,232,1.0,1.0,70,0.00,,---,0.00,VWS V14.00,2013-02-13 18:00:00,
2013-02-13 13:02:00,34.0,24.9,29.73,SSW,210,7.0,10.0,69,0.00,,---,0.00,VWS V14.00,2013-02-13 18:02:00,
2013-02-13 13:03:00,34.1,24.7,29.73,SW,232,6.0,10.0,68,0.00,,---,0.00,VWS V14.00,2013-02-13 18:03:00,
2013-02-13 13:04:00,34.1,25.0,29.73,SW,220,9.0,10.0,69,0.00,,---,0.00,VWS V14.00,2013-02-13 18:04:00,
2013-02-13 13:05:00,34.1,24.3,29.73,West,272,1.0,10.0,67,0.00,,---,0.00,VWS V14.00,2013-02-13 18:05:00,
2013-02-13 13:07:00,34.1,24.3,29.73,WNW,289,7.0,10.0,67,0.00,,---,0.00,VWS V14.00,2013-02-13 18:07:00,
2013-02-13 13:08:00,34.1,24.7,29.73,WSW,257,2.0,10.0,68,0.00,,---,0.00,VWS V14.00,2013-02-13 18:08:00,
2013-02-13 13:09:00,34.1,24.7,29.73,WNW,294,2.0,10.0,68,0.00,,---,0.00,VWS V14.00,2013-02-13 18:09:00,
2013-02-13 13:10:00,34.3,24.9,29.73,West,280,4.0,10.0,68,0.00,,---,0.00,VWS V14.00,2013-02-13 18:10:00,
2013-02-13 13:12:00,34.3,24.9,29.73,WSW,248,8.0,10.0,68,0.00,,---,0.00,VWS V14.00,2013-02-13 18:12:00,
2013-02-13 13:13:00,34.3,24.9,29.73,SSW,203,4.0,10.0,68,0.00,,---,0.00,VWS V14.00,2013-02-13 18:13:00,
2013-02-13 13:15:00,34.4,24.6,29.72,SSW,203,6.0,10.0,67,0.00,,---,0.00,VWS V14.00,2013-02-13 18:15:00,
2013-02-13 13:16:00,34.6,25.1,29.72,NW,312,4.0,10.0,68,0.00,,---,0.00,VWS V14.00,2013-02-13 18:16:00,
2013-02-13 13:17:00,34.7,25.2,29.72,NW,312,0.0,10.0,68,0.00,,---,0.00,VWS V14.00,2013-02-13 18:17:00,
2013-02-13 13:19:00,34.9,25.4,29.72,SW,230,2.0,10.0,68,0.00,,---,0.00,VWS V14.00,2013-02-13 18:19:00,
2013-02-13 13:20:00,34.9,25.8,29.72,SW,224,0.0,10.0,69,0.00,,---,0.00,VWS V14.00,2013-02-13 18:20:00,
2013-02-13 13:21:00,35.0,25.9,29.72,SW,229,0.0,10.0,69,0.00,,---,0.00,VWS V14.00,2013-02-13 18:21:00,
2013-02-13 13:22:00,35.2,25.7,29.72,SW,217,0.0,10.0,68,0.00,,---,0.00,VWS V14.00,2013-02-13 18:22:00,
2013-02-13 13:24:00,35.3,25.8,29.72,SW,217,0.0,10.0,68,0.00,,---,0.00,VWS V14.00,2013-02-13 18:24:00,
2013-02-13 13:25:00,35.5,26.0,29.72,SW,217,0.0,10.0,68,0.00,,---,0.00,VWS V14.00,2013-02-13 18:25:00,
2013-02-13 13:26:00,35.6,26.5,29.72,SW,219,0.0,10.0,69,0.00,,---,0.00,VWS V14.00,2013-02-13 18:26:00,
2013-02-13 13:27:00,35.9,26.4,29.72,West,272,0.0,10.0,68,0.00,,---,0.00,VWS V14.00,2013-02-13 18:27:00,
2013-02-13 13:29:00,36.0,26.1,29.72,SSE,161,0.0,10.0,67,0.00,,---,0.00,VWS V14.00,2013-02-13 18:29:00,
2013-02-13 13:30:00,36.0,26.1,29.70,SSE,161,0.0,10.0,67,0.00,,---,0.00,VWS V14.00,2013-02-13 18:30:00,
2013-02-13 13:31:00,36.2,26.3,29.70,South,191,0.0,10.0,67,0.00,,---,0.00,VWS V14.00,2013-02-13 18:31:00,
2013-02-13 13:32:00,36.3,26.4,29.70,SSW,200,2.0,10.0,67,0.00,,---,0.00,VWS V14.00,2013-02-13 18:32:00,
2013-02-13 13:34:00,36.5,26.2,29.70,SW,229,7.0,10.0,66,0.00,,---,0.00,VWS V14.00,2013-02-13 18:34:00,
2013-02-13 13:35:00,36.5,26.2,29.70,SW,226,7.0,10.0,66,0.00,,---,0.00,VWS V14.00,2013-02-13 18:35:00,
2013-02-13 13:36:00,36.5,25.9,29.70,WNW,284,6.0,10.0,65,0.00,,---,0.00,VWS V14.00,2013-02-13 18:36:00,
2013-02-13 13:37:00,36.5,25.9,29.70,NW,304,0.0,10.0,65,0.00,,---,0.00,VWS V14.00,2013-02-13 18:37:00,
2013-02-13 13:39:00,36.6,26.0,29.70,SSE,167,2.0,10.0,65,0.00,,---,0.00,VWS V14.00,2013-02-13 18:39:00,
2013-02-13 13:40:00,36.6,26.0,29.70,SSE,167,0.0,10.0,65,0.00,,---,0.00,VWS V14.00,2013-02-13 18:40:00,
2013-02-13 13:41:00,36.8,26.1,29.70,SSE,167,0.0,10.0,65,0.00,,---,0.00,VWS V14.00,2013-02-13 18:41:00,
2013-02-13 13:42:00,36.9,26.2,29.70,SSE,167,0.0,10.0,65,0.00,,---,0.00,VWS V14.00,2013-02-13 18:42:00,
2013-02-13 13:44:00,37.0,26.3,29.70,WNW,288,8.0,10.0,65,0.00,,---,0.00,VWS V14.00,2013-02-13 18:44:00,
2013-02-13 13:45:00,37.2,26.5,29.70,SSW,206,2.0,10.0,65,0.00,,---,0.00,VWS V14.00,2013-02-13 18:45:00,
2013-02-13 13:47:00,37.3,26.6,29.70,SSW,199,0.0,10.0,65,0.00,,---,0.00,VWS V14.00,2013-02-13 18:47:00,
2013-02-13 13:48:00,37.2,26.5,29.70,South,176,2.0,10.0,65,0.00,,---,0.00,VWS V14.00,2013-02-13 18:48:00,
2013-02-13 13:49:00,37.3,25.9,29.70,South,176,0.0,10.0,63,0.00,,---,0.00,VWS V14.00,2013-02-13 18:49:00,
2013-02-13 13:50:00,37.5,26.5,29.70,SSW,200,6.0,10.0,64,0.00,,---,0.00,VWS V14.00,2013-02-13 18:50:00,
2013-02-13 13:52:00,37.5,25.7,29.70,SW,220,7.0,10.0,62,0.00,,---,0.00,VWS V14.00,2013-02-13 18:52:00,
2013-02-13 13:53:00,37.3,25.5,29.70,SW,222,7.0,10.0,62,0.00,,---,0.00,VWS V14.00,2013-02-13 18:53:00,
2013-02-13 13:54:00,37.3,25.1,29.70,WSW,258,0.0,10.0,61,0.00,,---,0.00,VWS V14.00,2013-02-13 18:54:00,
2013-02-13 13:55:00,37.3,25.5,29.70,West,270,4.0,10.0,62,0.00,,---,0.00,VWS V14.00,2013-02-13 18:55:00,
2013-02-13 13:57:00,37.5,25.7,29.70,WSW,254,4.0,10.0,62,0.00,,---,0.00,VWS V14.00,2013-02-13 18:57:00,
2013-02-13 13:58:00,37.5,25.7,29.70,SSW,199,7.0,10.0,62,0.00,,---,0.00,VWS V14.00,2013-02-13 18:58:00,
2013-02-13 13:59:00,37.5,25.7,29.69,SSW,213,6.0,10.0,62,0.00,,---,0.00,VWS V14.00,2013-02-13 18:59:00,
2013-02-13 14:00:00,37.5,25.3,29.69,SW,224,6.0,6.0,61,0.00,,---,0.00,VWS V14.00,2013-02-13 19:00:00,
2013-02-13 14:02:00,37.5,25.7,29.69,SSW,209,4.0,8.0,62,0.00,,---,0.00,VWS V14.00,2013-02-13 19:02:00,
2013-02-13 14:03:00,37.6,25.8,29.69,SW,220,1.0,8.0,62,0.00,,---,0.00,VWS V14.00,2013-02-13 19:03:00,
2013-02-13 14:04:00,37.8,26.7,29.69,SW,234,8.0,11.0,64,0.00,,---,0.00,VWS V14.00,2013-02-13 19:04:00,
2013-02-13 14:06:00,37.8,26.0,29.69,SW,230,8.0,11.0,62,0.00,,---,0.00,VWS V14.00,2013-02-13 19:06:00,
2013-02-13 14:07:00,37.8,26.0,29.69,WNW,285,1.0,11.0,62,0.00,,---,0.00,VWS V14.00,2013-02-13 19:07:00,
2013-02-13 14:08:00,37.8,26.0,29.69,WNW,284,0.0,11.0,62,0.00,,---,0.00,VWS V14.00,2013-02-13 19:08:00,
2013-02-13 14:09:00,37.8,26.0,29.69,WNW,285,0.0,11.0,62,0.00,,---,0.00,VWS V14.00,2013-02-13 19:09:00,
2013-02-13 14:11:00,37.8,26.4,29.69,SSW,208,6.0,11.0,63,0.00,,---,0.00,VWS V14.00,2013-02-13 19:11:00,
2013-02-13 14:12:00,37.8,26.0,29.69,SSE,157,4.0,11.0,62,0.00,,---,0.00,VWS V14.00,2013-02-13 19:12:00,
2013-02-13 14:13:00,37.9,26.1,29.69,SSW,205,7.0,11.0,62,0.00,,---,0.00,VWS V14.00,2013-02-13 19:13:00,
2013-02-13 14:14:00,38.0,26.1,29.68,SSW,206,4.0,11.0,62,0.00,,---,0.00,VWS V14.00,2013-02-13 19:14:00,
2013-02-13 14:16:00,38.0,26.1,29.68,SW,215,9.0,11.0,62,0.00,,---,0.00,VWS V14.00,2013-02-13 19:16:00,
2013-02-13 14:17:00,38.2,26.0,29.68,SSW,208,6.0,11.0,61,0.00,,---,0.00,VWS V14.00,2013-02-13 19:17:00,
2013-02-13 14:18:00,38.2,26.0,29.68,SSW,213,7.0,11.0,61,0.00,,---,0.00,VWS V14.00,2013-02-13 19:18:00,
2013-02-13 14:20:00,38.2,25.5,29.68,SSW,209,10.0,11.0,60,0.00,,---,0.00,VWS V14.00,2013-02-13 19:20:00,
2013-02-13 14:21:00,38.2,25.1,29.68,SSW,200,4.0,11.0,59,0.00,,---,0.00,VWS V14.00,2013-02-13 19:21:00,
2013-02-13 14:23:00,38.2,25.1,29.68,WSW,243,2.0,11.0,59,0.00,,---,0.00,VWS V14.00,2013-02-13 19:23:00,
2013-02-13 14:24:00,38.2,25.1,29.68,SW,217,10.0,11.0,59,0.00,,---,0.00,VWS V14.00,2013-02-13 19:24:00,
2013-02-13 14:25:00,38.0,25.0,29.68,SW,222,4.0,11.0,59,0.00,,---,0.00,VWS V14.00,2013-02-13 19:25:00,
2013-02-13 14:26:00,38.2,25.5,29.68,SW,222,6.0,11.0,60,0.00,,---,0.00,VWS V14.00,2013-02-13 19:26:00,
2013-02-13 14:28:00,38.0,25.4,29.68,SSW,213,0.0,11.0,60,0.00,,---,0.00,VWS V14.00,2013-02-13 19:28:00,
2013-02-13 14:30:00,38.2,26.0,29.68,SW,232,8.0,11.0,61,0.00,,---,0.00,VWS V14.00,2013-02-13 19:30:00,
2013-02-13 14:31:00,38.2,25.5,29.68,SW,217,7.0,11.0,60,0.00,,---,0.00,VWS V14.00,2013-02-13 19:31:00,
2013-02-13 14:33:00,38.2,25.1,29.68,SW,230,10.0,11.0,59,0.00,,---,0.00,VWS V14.00,2013-02-13 19:33:00,
2013-02-13 14:34:00,38.2,25.1,29.68,SW,233,8.0,11.0,59,0.00,,---,0.00,VWS V14.00,2013-02-13 19:34:00,
2013-02-13 14:35:00,38.2,25.1,29.68,SW,220,2.0,11.0,59,0.00,,---,0.00,VWS V14.00,2013-02-13 19:35:00,
2013-02-13 14:36:00,38.0,25.0,29.68,SW,236,6.0,11.0,59,0.00,,---,0.00,VWS V14.00,2013-02-13 19:36:00,
2013-02-13 14:38:00,38.2,25.5,29.68,SW,219,10.0,11.0,60,0.00,,---,0.00,VWS V14.00,2013-02-13 19:38:00,
2013-02-13 14:39:00,38.2,25.5,29.68,WSW,248,6.0,11.0,60,0.00,,---,0.00,VWS V14.00,2013-02-13 19:39:00,
2013-02-13 14:40:00,38.2,25.1,29.68,SW,220,8.0,11.0,59,0.00,,---,0.00,VWS V14.00,2013-02-13 19:40:00,
2013-02-13 14:41:00,38.2,25.5,29.68,West,263,4.0,11.0,60,0.00,,---,0.00,VWS V14.00,2013-02-13 19:41:00,
2013-02-13 14:43:00,38.3,25.6,29.68,WNW,288,8.0,11.0,60,0.00,,---,0.00,VWS V14.00,2013-02-13 19:43:00,
2013-02-13 14:44:00,38.3,25.6,29.68,SW,230,7.0,11.0,60,0.00,,---,0.00,VWS V14.00,2013-02-13 19:44:00,
2013-02-13 14:45:00,38.3,25.6,29.68,SW,223,0.0,11.0,60,0.00,,---,0.00,VWS V14.00,2013-02-13 19:45:00,
2013-02-13 14:46:00,38.5,26.2,29.68,SW,217,8.0,11.0,61,0.00,,---,0.00,VWS V14.00,2013-02-13 19:46:00,
2013-02-13 14:48:00,38.3,25.2,29.68,SW,232,2.0,11.0,59,0.00,,---,0.00,VWS V14.00,2013-02-13 19:48:00,
2013-02-13 14:49:00,38.3,25.2,29.68,SW,215,9.0,11.0,59,0.00,,---,0.00,VWS V14.00,2013-02-13 19:49:00,
2013-02-13 14:50:00,38.3,24.8,29.68,SSW,213,7.0,11.0,58,0.00,,---,0.00,VWS V14.00,2013-02-13 19:50:00,
2013-02-13 14:51:00,38.3,24.8,29.68,SSW,213,1.0,11.0,58,0.00,,---,0.00,VWS V14.00,2013-02-13 19:51:00,
2013-02-13 14:53:00,38.5,25.4,29.68,SSW,209,4.0,11.0,59,0.00,,---,0.00,VWS V14.00,2013-02-13 19:53:00,
2013-02-13 14:54:00,38.6,25.5,29.68,SSW,205,2.0,11.0,59,0.00,,---,0.00,VWS V14.00,2013-02-13 19:54:00,
2013-02-13 14:55:00,38.6,25.5,29.68,SSW,199,2.0,11.0,59,0.00,,---,0.00,VWS V14.00,2013-02-13 19:55:00,
2013-02-13 14:56:00,38.9,25.8,29.68,SW,216,6.0,11.0,59,0.00,,---,0.00,VWS V14.00,2013-02-13 19:56:00,
2013-02-13 14:58:00,39.1,26.0,29.68,SSW,212,9.0,11.0,59,0.00,,---,0.00,VWS V14.00,2013-02-13 19:58:00,
2013-02-13 14:59:00,39.1,26.0,29.68,SSW,212,7.0,11.0,59,0.00,,---,0.00,VWS V14.00,2013-02-13 19:59:00,
2013-02-13 15:00:00,39.1,26.0,29.67,SSW,208,8.0,11.0,59,0.00,,---,0.00,VWS V14.00,2013-02-13 20:00:00,
2013-02-13 15:01:00,39.2,25.7,29.67,SSW,210,0.0,6.0,58,0.00,,---,0.00,VWS V14.00,2013-02-13 20:01:00,
2013-02-13 15:03:00,39.2,25.7,29.67,SSW,199,0.0,7.0,58,0.00,,---,0.00,VWS V14.00,2013-02-13 20:03:00,
2013-02-13 15:04:00,39.2,25.7,29.67,SSW,200,9.0,9.0,58,0.00,,---,0.00,VWS V14.00,2013-02-13 20:04:00,
2013-02-13 15:05:00,39.2,25.7,29.67,WNW,292,4.0,10.0,58,0.00,,---,0.00,VWS V14.00,2013-02-13 20:05:00,
2013-02-13 15:06:00,39.2,25.3,29.67,SSW,210,6.0,10.0,57,0.00,,---,0.00,VWS V14.00,2013-02-13 20:06:00,
2013-02-13 15:08:00,39.3,25.8,29.67,SSW,206,7.0,13.0,58,0.00,,---,0.00,VWS V14.00,2013-02-13 20:08:00,
2013-02-13 15:09:00,39.3,25.4,29.67,South,191,8.0,13.0,57,0.00,,---,0.00,VWS V14.00,2013-02-13 20:09:00,
2013-02-13 15:10:00,39.2,25.3,29.67,SSW,203,6.0,13.0,57,0.00,,---,0.00,VWS V14.00,2013-02-13 20:10:00,
2013-02-13 15:12:00,39.3,25.8,29.67,SW,216,4.0,13.0,58,0.00,,---,0.00,VWS V14.00,2013-02-13 20:12:00,
2013-02-13 15:14:00,39.3,25.8,29.67,SSW,200,1.0,13.0,58,0.00,,---,0.00,VWS V14.00,2013-02-13 20:14:00,
2013-02-13 15:15:00,39.3,25.4,29.67,West,264,0.0,13.0,57,0.00,,---,0.00,VWS V14.00,2013-02-13 20:15:00,
2013-02-13 15:17:00,39.3,25.4,29.67,SSW,213,7.0,13.0,57,0.00,,---,0.00,VWS V14.00,2013-02-13 20:17:00,
2013-02-13 15:19:00,39.3,25.4,29.67,SW,223,6.0,13.0,57,0.00,,---,0.00,VWS V14.00,2013-02-13 20:19:00,
2013-02-13 15:20:00,39.3,25.4,29.67,SSW,203,7.0,13.0,57,0.00,,---,0.00,VWS V14.00,2013-02-13 20:20:00,
2013-02-13 15:22:00,39.5,25.5,29.67,SW,224,9.0,13.0,57,0.00,,---,0.00,VWS V14.00,2013-02-13 20:22:00,
2013-02-13 15:24:00,39.5,25.1,29.67,West,275,0.0,13.0,56,0.00,,---,0.00,VWS V14.00,2013-02-13 20:24:00,
2013-02-13 15:25:00,39.5,25.1,29.67,SW,223,0.0,13.0,56,0.00,,---,0.00,VWS V14.00,2013-02-13 20:25:00,
2013-02-13 15:27:00,39.5,25.5,29.67,SSW,206,7.0,13.0,57,0.00,,---,0.00,VWS V14.00,2013-02-13 20:27:00,
2013-02-13 15:29:00,39.5,25.1,29.67,SSW,209,8.0,13.0,56,0.00,,---,0.00,VWS V14.00,2013-02-13 20:29:00,
2013-02-13 15:31:00,39.5,24.7,29.67,South,191,2.0,13.0,55,0.00,,---,0.00,VWS V14.00,2013-02-13 20:31:00,
2013-02-13 15:32:00,39.6,25.2,29.67,SSW,199,0.0,13.0,56,0.00,,---,0.00,VWS V14.00,2013-02-13 20:32:00,
2013-02-13 15:34:00,39.6,24.8,29.67,SSW,210,1.0,13.0,55,0.00,,---,0.00,VWS V14.00,2013-02-13 20:34:00,
2013-02-13 15:36:00,39.9,25.5,29.67,SSW,213,8.0,13.0,56,0.00,,---,0.00,VWS V14.00,2013-02-13 20:36:00,
2013-02-13 15:37:00,39.9,25.5,29.67,SW,216,6.0,13.0,56,0.00,,---,0.00,VWS V14.00,2013-02-13 20:37:00,
2013-02-13 15:39:00,39.9,25.5,29.67,SW,223,6.0,13.0,56,0.00,,---,0.00,VWS V14.00,2013-02-13 20:39:00,
2013-02-13 15:40:00,40.1,26.1,29.67,WSW,237,8.0,13.0,57,0.00,,---,0.00,VWS V14.00,2013-02-13 20:40:00,
2013-02-13 15:41:00,40.1,26.1,29.67,SSW,209,7.0,13.0,57,0.00,,---,0.00,VWS V14.00,2013-02-13 20:41:00,
2013-02-13 15:42:00,39.9,25.5,29.67,SW,223,9.0,13.0,56,0.00,,---,0.00,VWS V14.00,2013-02-13 20:42:00,
2013-02-13 15:44:00,39.9,25.5,29.67,SW,217,4.0,13.0,56,0.00,,---,0.00,VWS V14.00,2013-02-13 20:44:00,
2013-02-13 15:45:00,39.9,25.5,29.67,SSW,200,7.0,13.0,56,0.00,,---,0.00,VWS V14.00,2013-02-13 20:45:00,
2013-02-13 15:46:00,39.9,25.5,29.67,SW,215,4.0,13.0,56,0.00,,---,0.00,VWS V14.00,2013-02-13 20:46:00,
2013-02-13 15:47:00,40.1,25.7,29.67,SSW,202,6.0,13.0,56,0.00,,---,0.00,VWS V14.00,2013-02-13 20:47:00,
2013-02-13 15:49:00,40.1,25.2,29.67,SSW,213,2.0,13.0,55,0.00,,---,0.00,VWS V14.00,2013-02-13 20:49:00,
2013-02-13 15:50:00,40.1,25.7,29.67,SSW,213,0.0,13.0,56,0.00,,---,0.00,VWS V14.00,2013-02-13 20:50:00,
2013-02-13 15:51:00,40.1,25.7,29.67,SW,229,7.0,13.0,56,0.00,,---,0.00,VWS V14.00,2013-02-13 20:51:00,
2013-02-13 15:53:00,39.9,25.5,29.67,SW,215,10.0,13.0,56,0.00,,---,0.00,VWS V14.00,2013-02-13 20:53:00,
2013-02-13 15:54:00,39.9,25.9,29.67,SSW,203,2.0,13.0,57,0.00,,---,0.00,VWS V14.00,2013-02-13 20:54:00,
2013-02-13 15:55:00,39.9,26.3,29.67,SSW,210,8.0,13.0,58,0.00,,---,0.00,VWS V14.00,2013-02-13 20:55:00,
2013-02-13 15:56:00,39.9,25.9,29.67,SW,226,6.0,13.0,57,0.00,,---,0.00,VWS V14.00,2013-02-13 20:56:00,
2013-02-13 15:58:00,39.9,25.9,29.67,SSE,158,0.0,13.0,57,0.00,,---,0.00,VWS V14.00,2013-02-13 20:58:00,
2013-02-13 15:59:00,39.9,26.3,29.67,SSW,196,6.0,13.0,58,0.00,,---,0.00,VWS V14.00,2013-02-13 20:59:00,
2013-02-13 16:00:00,40.1,26.1,29.67,SSW,202,6.0,13.0,57,0.00,,---,0.00,VWS V14.00,2013-02-13 21:00:00,
2013-02-13 16:01:00,40.1,26.1,29.67,SSW,203,4.0,6.0,57,0.00,,---,0.00,VWS V14.00,2013-02-13 21:01:00,
2013-02-13 16:03:00,40.2,26.2,29.67,SW,219,4.0,7.0,57,0.00,,---,0.00,VWS V14.00,2013-02-13 21:03:00,
2013-02-13 16:05:00,40.2,25.8,29.67,SW,217,6.0,9.0,56,0.00,,---,0.00,VWS V14.00,2013-02-13 21:05:00,
2013-02-13 16:06:00,40.2,25.8,29.67,SSW,200,8.0,9.0,56,0.00,,---,0.00,VWS V14.00,2013-02-13 21:06:00,
2013-02-13 16:08:00,40.1,25.7,29.67,WSW,240,0.0,9.0,56,0.00,,---,0.00,VWS V14.00,2013-02-13 21:08:00,
2013-02-13 16:10:00,40.2,26.2,29.67,SW,216,9.0,10.0,57,0.00,,---,0.00,VWS V14.00,2013-02-13 21:10:00,
2013-02-13 16:11:00,40.1,26.1,29.67,SSW,206,0.0,10.0,57,0.00,,---,0.00,VWS V14.00,2013-02-13 21:11:00,
2013-02-13 16:13:00,40.3,27.1,29.67,South,191,4.0,10.0,59,0.00,,---,0.00,VWS V14.00,2013-02-13 21:13:00,
2013-02-13 16:15:00,40.3,26.7,29.67,SSW,202,6.0,10.0,58,0.00,,---,0.00,VWS V14.00,2013-02-13 21:15:00,
2013-02-13 16:16:00,40.5,26.9,29.67,South,191,0.0,10.0,58,0.00,,---,0.00,VWS V14.00,2013-02-13 21:16:00,
2013-02-13 16:18:00,40.5,26.9,29.67,SW,216,7.0,10.0,58,0.00,,---,0.00,VWS V14.00,2013-02-13 21:18:00,
2013-02-13 16:20:00,40.5,26.9,29.67,SSW,210,6.0,10.0,58,0.00,,---,0.00,VWS V14.00,2013-02-13 21:20:00,
2013-02-13 16:21:00,40.3,27.1,29.67,SSE,157,7.0,10.0,59,0.00,,---,0.00,VWS V14.00,2013-02-13 21:21:00,
2013-02-13 16:24:00,40.3,27.1,29.67,SSE,150,4.0,10.0,59,0.00,,---,0.00,VWS V14.00,2013-02-13 21:24:00,
2013-02-13 16:25:00,40.3,27.5,29.67,SSE,158,2.0,10.0,60,0.00,,---,0.00,VWS V14.00,2013-02-13 21:25:00,
2013-02-13 16:27:00,40.3,27.5,29.67,SE,136,4.0,10.0,60,0.00,,---,0.00,VWS V14.00,2013-02-13 21:27:00,
2013-02-13 16:29:00,40.5,28.1,29.67,SSE,154,0.0,10.0,61,0.00,,---,0.00,VWS V14.00,2013-02-13 21:29:00,
2013-02-13 16:30:00,40.5,28.1,29.66,SSE,161,2.0,10.0,61,0.00,,---,0.00,VWS V14.00,2013-02-13 21:30:00,
2013-02-13 16:32:00,40.6,28.2,29.66,SE,137,0.0,10.0,61,0.00,,---,0.00,VWS V14.00,2013-02-13 21:32:00,
2013-02-13 16:34:00,40.6,28.2,29.66,SSW,200,4.0,10.0,61,0.00,,---,0.00,VWS V14.00,2013-02-13 21:34:00,
2013-02-13 16:35:00,40.5,27.7,29.66,South,175,6.0,10.0,60,0.00,,---,0.00,VWS V14.00,2013-02-13 21:35:00,
2013-02-13 16:37:00,40.6,27.8,29.66,SSE,164,1.0,10.0,60,0.00,,---,0.00,VWS V14.00,2013-02-13 21:37:00,
2013-02-13 16:39:00,40.6,27.8,29.66,SSE,161,6.0,10.0,60,0.00,,---,0.00,VWS V14.00,2013-02-13 21:39:00,
2013-02-13 16:40:00,40.8,28.0,29.66,SSE,160,1.0,10.0,60,0.00,,---,0.00,VWS V14.00,2013-02-13 21:40:00,
2013-02-13 16:41:00,40.6,27.4,29.66,SSE,151,6.0,10.0,59,0.00,,---,0.00,VWS V14.00,2013-02-13 21:41:00,
2013-02-13 16:42:00,40.8,27.6,29.66,SSE,151,1.0,10.0,59,0.00,,---,0.00,VWS V14.00,2013-02-13 21:42:00,
2013-02-13 16:44:00,40.6,27.4,29.66,SSE,155,6.0,10.0,59,0.00,,---,0.00,VWS V14.00,2013-02-13 21:44:00,
2013-02-13 16:45:00,40.6,27.8,29.66,SSE,155,2.0,10.0,60,0.00,,---,0.00,VWS V14.00,2013-02-13 21:45:00,
2013-02-13 16:46:00,40.6,27.8,29.66,SSE,151,6.0,10.0,60,0.00,,---,0.00,VWS V14.00,2013-02-13 21:46:00,
2013-02-13 16:47:00,40.6,27.4,29.66,SSE,155,0.0,10.0,59,0.00,,---,0.00,VWS V14.00,2013-02-13 21:47:00,
2013-02-13 16:49:00,40.5,27.3,29.66,South,185,0.0,10.0,59,0.00,,---,0.00,VWS V14.00,2013-02-13 21:49:00,
2013-02-13 16:50:00,40.5,27.3,29.66,South,174,1.0,10.0,59,0.00,,---,0.00,VWS V14.00,2013-02-13 21:50:00,
2013-02-13 16:51:00,40.5,27.3,29.66,SSE,161,1.0,10.0,59,0.00,,---,0.00,VWS V14.00,2013-02-13 21:51:00,
2013-02-13 16:52:00,40.5,27.3,29.66,SSE,167,0.0,10.0,59,0.00,,---,0.00,VWS V14.00,2013-02-13 21:52:00,
2013-02-13 16:54:00,40.3,27.1,29.66,SSW,212,6.0,10.0,59,0.00,,---,0.00,VWS V14.00,2013-02-13 21:54:00,
2013-02-13 16:56:00,40.2,27.0,29.66,SSE,162,0.0,10.0,59,0.00,,---,0.00,VWS V14.00,2013-02-13 21:56:00,
2013-02-13 16:57:00,40.1,26.9,29.66,SSE,160,7.0,10.0,59,0.00,,---,0.00,VWS V14.00,2013-02-13 21:57:00,
2013-02-13 16:59:00,40.1,27.4,29.66,South,188,7.0,10.0,60,0.00,,---,0.00,VWS V14.00,2013-02-13 21:59:00,
2013-02-13 17:01:00,39.8,27.1,29.67,SSW,208,1.0,8.0,60,0.00,,---,0.00,VWS V14.00,2013-02-13 22:01:00,
2013-02-13 17:02:00,39.6,26.9,29.67,SW,216,0.0,8.0,60,0.00,,---,0.00,VWS V14.00,2013-02-13 22:02:00,
2013-02-13 17:04:00,39.5,26.8,29.67,South,186,6.0,8.0,60,0.00,,---,0.00,VWS V14.00,2013-02-13 22:04:00,
2013-02-13 17:06:00,39.3,27.0,29.67,SSW,196,0.0,8.0,61,0.00,,---,0.00,VWS V14.00,2013-02-13 22:06:00,
2013-02-13 17:07:00,39.3,27.0,29.67,South,189,0.0,8.0,61,0.00,,---,0.00,VWS V14.00,2013-02-13 22:07:00,
2013-02-13 17:09:00,39.3,27.4,29.67,South,189,0.0,8.0,62,0.00,,---,0.00,VWS V14.00,2013-02-13 22:09:00,
2013-02-13 17:11:00,39.3,27.4,29.67,South,169,4.0,8.0,62,0.00,,---,0.00,VWS V14.00,2013-02-13 22:11:00,
2013-02-13 17:13:00,39.2,27.3,29.67,South,188,4.0,8.0,62,0.00,,---,0.00,VWS V14.00,2013-02-13 22:13:00,
2013-02-13 17:14:00,39.1,27.2,29.67,SSW,193,1.0,8.0,62,0.00,,---,0.00,VWS V14.00,2013-02-13 22:14:00,
2013-02-13 17:16:00,38.9,27.0,29.67,SSW,205,4.0,8.0,62,0.00,,---,0.00,VWS V14.00,2013-02-13 22:16:00,
2013-02-13 17:18:00,38.8,26.9,29.67,South,169,6.0,8.0,62,0.00,,---,0.00,VWS V14.00,2013-02-13 22:18:00,
2013-02-13 17:19:00,38.8,26.9,29.67,South,179,0.0,8.0,62,0.00,,---,0.00,VWS V14.00,2013-02-13 22:19:00,
2013-02-13 17:21:00,38.6,27.1,29.67,South,185,2.0,8.0,63,0.00,,---,0.00,VWS V14.00,2013-02-13 22:21:00,
2013-02-13 17:23:00,38.6,27.1,29.67,SSE,155,2.0,8.0,63,0.00,,---,0.00,VWS V14.00,2013-02-13 22:23:00,
2013-02-13 17:24:00,38.5,27.0,29.67,South,176,0.0,8.0,63,0.00,,---,0.00,VWS V14.00,2013-02-13 22:24:00,
2013-02-13 17:26:00,38.5,27.0,29.67,South,176,0.0,8.0,63,0.00,,---,0.00,VWS V14.00,2013-02-13 22:26:00,
2013-02-13 17:28:00,38.5,27.4,29.67,South,176,0.0,8.0,64,0.00,,---,0.00,VWS V14.00,2013-02-13 22:28:00,
2013-02-13 17:29:00,38.3,27.2,29.68,SSE,165,0.0,8.0,64,0.00,,---,0.00,VWS V14.00,2013-02-13 22:29:00,
2013-02-13 17:31:00,38.3,27.2,29.68,South,169,2.0,8.0,64,0.00,,---,0.00,VWS V14.00,2013-02-13 22:31:00,
2013-02-13 17:33:00,38.2,27.1,29.68,South,169,0.0,8.0,64,0.00,,---,0.00,VWS V14.00,2013-02-13 22:33:00,
2013-02-13 17:34:00,38.2,27.1,29.68,South,169,0.0,8.0,64,0.00,,---,0.00,VWS V14.00,2013-02-13 22:34:00,
2013-02-13 17:36:00,38.0,26.9,29.68,South,169,2.0,8.0,64,0.00,,---,0.00,VWS V14.00,2013-02-13 22:36:00,
2013-02-13 17:37:00,38.0,26.9,29.68,South,169,0.0,8.0,64,0.00,,---,0.00,VWS V14.00,2013-02-13 22:37:00,
2013-02-13 17:38:00,37.9,27.2,29.68,South,169,2.0,8.0,65,0.00,,---,0.00,VWS V14.00,2013-02-13 22:38:00,
2013-02-13 17:39:00,37.9,27.2,29.68,South,169,0.0,8.0,65,0.00,,---,0.00,VWS V14.00,2013-02-13 22:39:00,
2013-02-13 17:41:00,37.8,27.1,29.68,South,169,0.0,8.0,65,0.00,,---,0.00,VWS V14.00,2013-02-13 22:41:00,
2013-02-13 17:43:00,37.6,26.9,29.68,South,169,1.0,8.0,65,0.00,,---,0.00,VWS V14.00,2013-02-13 22:43:00,
2013-02-13 17:45:00,37.3,26.6,29.68,South,169,2.0,8.0,65,0.00,,---,0.00,VWS V14.00,2013-02-13 22:45:00,
2013-02-13 17:46:00,37.3,26.6,29.68,South,169,0.0,8.0,65,0.00,,---,0.00,VWS V14.00,2013-02-13 22:46:00,
2013-02-13 17:47:00,37.2,26.5,29.68,South,169,0.0,8.0,65,0.00,,---,0.00,VWS V14.00,2013-02-13 22:47:00,
2013-02-13 17:48:00,37.2,26.9,29.68,South,169,0.0,8.0,66,0.00,,---,0.00,VWS V14.00,2013-02-13 22:48:00,
2013-02-13 17:50:00,37.0,26.7,29.68,SSE,162,4.0,8.0,66,0.00,,---,0.00,VWS V14.00,2013-02-13 22:50:00,
2013-02-13 17:51:00,36.9,26.6,29.68,SSE,164,0.0,8.0,66,0.00,,---,0.00,VWS V14.00,2013-02-13 22:51:00,
2013-02-13 17:52:00,36.9,26.6,29.68,SSE,164,0.0,8.0,66,0.00,,---,0.00,VWS V14.00,2013-02-13 22:52:00,
2013-02-13 17:53:00,36.8,26.5,29.68,SSE,164,0.0,8.0,66,0.00,,---,0.00,VWS V14.00,2013-02-13 22:53:00,
2013-02-13 17:55:00,36.6,26.7,29.68,SSE,164,0.0,8.0,67,0.00,,---,0.00,VWS V14.00,2013-02-13 22:55:00,
2013-02-13 17:56:00,36.6,26.7,29.68,SSE,164,0.0,8.0,67,0.00,,---,0.00,VWS V14.00,2013-02-13 22:56:00,
2013-02-13 17:57:00,36.5,26.6,29.68,SSE,164,0.0,8.0,67,0.00,,---,0.00,VWS V14.00,2013-02-13 22:57:00,
2013-02-13 17:58:00,36.5,26.6,29.68,SSE,164,2.0,8.0,67,0.00,,---,0.00,VWS V14.00,2013-02-13 22:58:00,
2013-02-13 18:00:00,36.3,26.4,29.68,SSE,164,0.0,8.0,67,0.00,,---,0.00,VWS V14.00,2013-02-13 23:00:00,
2013-02-13 18:01:00,36.3,26.4,29.68,SSE,164,0.0,0.0,67,0.00,,---,0.00,VWS V14.00,2013-02-13 23:01:00,
2013-02-13 18:02:00,36.2,26.3,29.68,SSE,164,0.0,0.0,67,0.00,,---,0.00,VWS V14.00,2013-02-13 23:02:00,
2013-02-13 18:03:00,36.2,26.3,29.68,SSE,164,0.0,0.0,67,0.00,,---,0.00,VWS V14.00,2013-02-13 23:03:00,
2013-02-13 18:05:00,36.0,26.1,29.68,SSE,164,0.0,2.0,67,0.00,,---,0.00,VWS V14.00,2013-02-13 23:05:00,
2013-02-13 18:06:00,36.0,26.5,29.68,SSE,164,0.0,2.0,68,0.00,,---,0.00,VWS V14.00,2013-02-13 23:06:00,
2013-02-13 18:07:00,35.9,26.4,29.68,SSE,164,0.0,2.0,68,0.00,,---,0.00,VWS V14.00,2013-02-13 23:07:00,
2013-02-13 18:08:00,35.9,26.4,29.68,SSE,164,0.0,2.0,68,0.00,,---,0.00,VWS V14.00,2013-02-13 23:08:00,
2013-02-13 18:10:00,35.8,26.3,29.68,SSE,164,0.0,2.0,68,0.00,,---,0.00,VWS V14.00,2013-02-13 23:10:00,
2013-02-13 18:12:00,35.8,26.3,29.68,SSE,164,0.0,2.0,68,0.00,,---,0.00,VWS V14.00,2013-02-13 23:12:00,
2013-02-13 18:14:00,35.6,26.1,29.68,SSE,164,0.0,2.0,68,0.00,,---,0.00,VWS V14.00,2013-02-13 23:14:00,
2013-02-13 18:15:00,35.6,26.1,29.69,SSE,164,0.0,2.0,68,0.00,,---,0.00,VWS V14.00,2013-02-13 23:15:00,
2013-02-13 18:17:00,35.5,26.4,29.69,SSE,164,0.0,2.0,69,0.00,,---,0.00,VWS V14.00,2013-02-13 23:17:00,
2013-02-13 18:19:00,35.3,26.2,29.69,SSE,164,0.0,2.0,69,0.00,,---,0.00,VWS V14.00,2013-02-13 23:19:00,
2013-02-13 18:20:00,35.3,26.2,29.69,SSE,164,0.0,2.0,69,0.00,,---,0.00,VWS V14.00,2013-02-13 23:20:00,
2013-02-13 18:22:00,35.2,25.7,29.69,SSE,164,0.0,2.0,68,0.00,,---,0.00,VWS V14.00,2013-02-13 23:22:00,
2013-02-13 18:24:00,35.0,25.5,29.69,SSE,164,0.0,2.0,68,0.00,,---,0.00,VWS V14.00,2013-02-13 23:24:00,
2013-02-13 18:25:00,35.0,25.9,29.69,SSE,164,0.0,2.0,69,0.00,,---,0.00,VWS V14.00,2013-02-13 23:25:00,
2013-02-13 18:27:00,35.0,25.5,29.69,SSE,164,0.0,2.0,68,0.00,,---,0.00,VWS V14.00,2013-02-13 23:27:00,
2013-02-13 18:29:00,34.9,25.8,29.69,SSE,164,0.0,2.0,69,0.00,,---,0.00,VWS V14.00,2013-02-13 23:29:00,
2013-02-13 18:30:00,34.7,25.6,29.69,SSE,164,0.0,2.0,69,0.00,,---,0.00,VWS V14.00,2013-02-13 23:30:00,
2013-02-13 18:32:00,34.6,25.5,29.69,SSE,165,0.0,2.0,69,0.00,,---,0.00,VWS V14.00,2013-02-13 23:32:00,
2013-02-13 18:33:00,34.6,25.5,29.69,SSE,165,0.0,2.0,69,0.00,,---,0.00,VWS V14.00,2013-02-13 23:33:00,
2013-02-13 18:34:00,34.6,25.5,29.69,SSE,165,0.0,2.0,69,0.00,,---,0.00,VWS V14.00,2013-02-13 23:34:00,
2013-02-13 18:35:00,34.4,25.3,29.69,SSE,165,0.0,2.0,69,0.00,,---,0.00,VWS V14.00,2013-02-13 23:35:00,
2013-02-13 18:37:00,34.3,25.5,29.69,SSE,165,0.0,2.0,70,0.00,,---,0.00,VWS V14.00,2013-02-13 23:37:00,
2013-02-13 18:38:00,34.3,25.5,29.69,SSE,165,0.0,2.0,70,0.00,,---,0.00,VWS V14.00,2013-02-13 23:38:00,
2013-02-13 18:39:00,34.1,25.4,29.69,SSE,165,0.0,2.0,70,0.00,,---,0.00,VWS V14.00,2013-02-13 23:39:00,
2013-02-13 18:40:00,34.1,25.4,29.69,SSE,165,0.0,2.0,70,0.00,,---,0.00,VWS V14.00,2013-02-13 23:40:00,
2013-02-13 18:42:00,34.0,25.6,29.69,SSE,165,0.0,2.0,71,0.00,,---,0.00,VWS V14.00,2013-02-13 23:42:00,
2013-02-13 18:43:00,34.0,25.6,29.69,SSE,165,0.0,2.0,71,0.00,,---,0.00,VWS V14.00,2013-02-13 23:43:00,
2013-02-13 18:44:00,33.8,25.4,29.69,SSE,165,0.0,2.0,71,0.00,,---,0.00,VWS V14.00,2013-02-13 23:44:00,
2013-02-13 18:45:00,33.8,25.4,29.69,SSE,165,0.0,2.0,71,0.00,,---,0.00,VWS V14.00,2013-02-13 23:45:00,
2013-02-13 18:47:00,33.7,25.3,29.69,SSE,165,0.0,2.0,71,0.00,,---,0.00,VWS V14.00,2013-02-13 23:47:00,
2013-02-13 18:48:00,33.7,25.6,29.69,SSE,165,0.0,2.0,72,0.00,,---,0.00,VWS V14.00,2013-02-13 23:48:00,
2013-02-13 18:49:00,33.7,25.6,29.69,SSE,165,0.0,2.0,72,0.00,,---,0.00,VWS V14.00,2013-02-13 23:49:00,
2013-02-13 18:50:00,33.5,25.5,29.69,SSE,165,0.0,2.0,72,0.00,,---,0.00,VWS V14.00,2013-02-13 23:50:00,
2013-02-13 18:53:00,33.5,25.5,29.69,SSE,165,0.0,2.0,72,0.00,,---,0.00,VWS V14.00,2013-02-13 23:53:00,
2013-02-13 18:54:00,33.4,25.4,29.69,SSE,165,0.0,2.0,72,0.00,,---,0.00,VWS V14.00,2013-02-13 23:54:00,
2013-02-13 18:55:00,33.4,25.4,29.69,SSE,165,0.0,2.0,72,0.00,,---,0.00,VWS V14.00,2013-02-13 23:55:00,
2013-02-13 18:58:00,33.2,25.2,29.69,SSE,165,0.0,2.0,72,0.00,,---,0.00,VWS V14.00,2013-02-13 23:58:00,
2013-02-13 18:59:00,33.2,25.2,29.69,SSE,165,0.0,2.0,72,0.00,,---,0.00,VWS V14.00,2013-02-13 23:59:00,
2013-02-13 19:00:00,33.1,25.1,29.70,SSE,165,0.0,0.0,72,0.00,,---,0.00,VWS V14.00,2013-02-14 00:00:00,
2013-02-13 19:03:00,32.9,24.9,29.70,SSE,165,0.0,0.0,72,0.00,,---,0.00,VWS V14.00,2013-02-14 00:03:00,
2013-02-13 19:04:00,32.9,24.9,29.70,SSE,165,0.0,0.0,72,0.00,,---,0.00,VWS V14.00,2013-02-14 00:04:00,
2013-02-13 19:05:00,32.9,24.9,29.70,SSE,165,0.0,0.0,72,0.00,,---,0.00,VWS V14.00,2013-02-14 00:05:00,
2013-02-13 19:08:00,32.8,24.8,29.70,SSE,165,0.0,0.0,72,0.00,,---,0.00,VWS V14.00,2013-02-14 00:08:00,
2013-02-13 19:09:00,32.7,24.7,29.70,SSE,165,0.0,1.0,72,0.00,,---,0.00,VWS V14.00,2013-02-14 00:09:00,
2013-02-13 19:10:00,32.7,24.7,29.70,SSE,165,0.0,1.0,72,0.00,,---,0.00,VWS V14.00,2013-02-14 00:10:00,
2013-02-13 19:11:00,32.7,24.7,29.70,SSE,165,0.0,1.0,72,0.00,,---,0.00,VWS V14.00,2013-02-14 00:11:00,
2013-02-13 19:13:00,32.5,24.8,29.70,SSE,165,0.0,1.0,73,0.00,,---,0.00,VWS V14.00,2013-02-14 00:13:00,
2013-02-13 19:14:00,32.5,24.8,29.70,SSE,165,0.0,1.0,73,0.00,,---,0.00,VWS V14.00,2013-02-14 00:14:00,
2013-02-13 19:15:00,32.4,24.7,29.70,SSE,165,0.0,1.0,73,0.00,,---,0.00,VWS V14.00,2013-02-14 00:15:00,
2013-02-13 19:16:00,32.4,24.7,29.70,SSE,165,0.0,1.0,73,0.00,,---,0.00,VWS V14.00,2013-02-14 00:16:00,
2013-02-13 19:18:00,32.4,25.0,29.70,SSE,165,0.0,1.0,74,0.00,,---,0.00,VWS V14.00,2013-02-14 00:18:00,
2013-02-13 19:19:00,32.2,24.9,29.70,SSE,165,0.0,1.0,74,0.00,,---,0.00,VWS V14.00,2013-02-14 00:19:00,
2013-02-13 19:20:00,32.2,24.9,29.70,SSE,165,0.0,1.0,74,0.00,,---,0.00,VWS V14.00,2013-02-14 00:20:00,
2013-02-13 19:21:00,32.2,24.9,29.70,SSE,165,0.0,1.0,74,0.00,,---,0.00,VWS V14.00,2013-02-14 00:21:00,
2013-02-13 19:23:00,32.1,24.8,29.70,SSE,165,0.0,1.0,74,0.00,,---,0.00,VWS V14.00,2013-02-14 00:23:00,
2013-02-13 19:24:00,32.1,24.8,29.70,SSE,165,0.0,1.0,74,0.00,,---,0.00,VWS V14.00,2013-02-14 00:24:00,
2013-02-13 19:25:00,32.1,24.8,29.70,SSE,165,0.0,1.0,74,0.00,,---,0.00,VWS V14.00,2013-02-14 00:25:00,
2013-02-13 19:26:00,31.9,24.6,29.70,SSE,165,0.0,1.0,74,0.00,,---,0.00,VWS V14.00,2013-02-14 00:26:00,
2013-02-13 19:28:00,31.9,24.6,29.70,SSE,165,0.0,1.0,74,0.00,,---,0.00,VWS V14.00,2013-02-14 00:28:00,
2013-02-13 19:29:00,31.9,24.6,29.70,SSE,165,0.0,1.0,74,0.00,,---,0.00,VWS V14.00,2013-02-14 00:29:00,
2013-02-13 19:30:00,31.9,24.9,29.71,SSE,165,0.0,1.0,75,0.00,,---,0.00,VWS V14.00,2013-02-14 00:30:00,
2013-02-13 19:31:00,31.8,24.8,29.71,SSE,165,0.0,1.0,75,0.00,,---,0.00,VWS V14.00,2013-02-14 00:31:00,
2013-02-13 19:33:00,31.8,24.8,29.71,SSE,165,0.0,1.0,75,0.00,,---,0.00,VWS V14.00,2013-02-14 00:33:00,
2013-02-13 19:34:00,31.8,24.8,29.71,SSE,165,0.0,1.0,75,0.00,,---,0.00,VWS V14.00,2013-02-14 00:34:00,
2013-02-13 19:35:00,31.8,24.8,29.71,SSE,165,0.0,1.0,75,0.00,,---,0.00,VWS V14.00,2013-02-14 00:35:00,
2013-02-13 19:36:00,31.6,24.6,29.71,SSE,165,0.0,1.0,75,0.00,,---,0.00,VWS V14.00,2013-02-14 00:36:00,
2013-02-13 19:38:00,31.6,24.6,29.71,SSE,165,0.0,1.0,75,0.00,,---,0.00,VWS V14.00,2013-02-14 00:38:00,
2013-02-13 19:39:00,31.6,24.6,29.71,SSE,165,0.0,1.0,75,0.00,,---,0.00,VWS V14.00,2013-02-14 00:39:00,
2013-02-13 19:40:00,31.6,24.6,29.71,SSE,165,0.0,1.0,75,0.00,,---,0.00,VWS V14.00,2013-02-14 00:40:00,
2013-02-13 19:42:00,31.5,24.5,29.71,SSE,165,0.0,1.0,75,0.00,,---,0.00,VWS V14.00,2013-02-14 00:42:00,
2013-02-13 19:44:00,31.5,24.8,29.71,SSE,165,0.0,1.0,76,0.00,,---,0.00,VWS V14.00,2013-02-14 00:44:00,
2013-02-13 19:45:00,31.5,24.8,29.71,SSE,165,0.0,1.0,76,0.00,,---,0.00,VWS V14.00,2013-02-14 00:45:00,
2013-02-13 19:46:00,31.5,24.8,29.71,SSE,165,0.0,1.0,76,0.00,,---,0.00,VWS V14.00,2013-02-14 00:46:00,
2013-02-13 19:47:00,31.5,24.8,29.71,SSE,165,0.0,1.0,76,0.00,,---,0.00,VWS V14.00,2013-02-14 00:47:00,
2013-02-13 19:49:00,31.5,24.8,29.71,SSE,165,0.0,1.0,76,0.00,,---,0.00,VWS V14.00,2013-02-14 00:49:00,
2013-02-13 19:50:00,31.3,24.6,29.71,SSE,165,0.0,1.0,76,0.00,,---,0.00,VWS V14.00,2013-02-14 00:50:00,
2013-02-13 19:51:00,31.3,24.6,29.71,SSE,165,0.0,1.0,76,0.00,,---,0.00,VWS V14.00,2013-02-14 00:51:00,
2013-02-13 19:52:00,31.3,24.6,29.71,SSE,165,0.0,1.0,76,0.00,,---,0.00,VWS V14.00,2013-02-14 00:52:00,
2013-02-13 19:54:00,31.3,24.9,29.71,SSE,165,0.0,1.0,77,0.00,,---,0.00,VWS V14.00,2013-02-14 00:54:00,
2013-02-13 19:56:00,31.3,24.9,29.71,SSE,165,0.0,1.0,77,0.00,,---,0.00,VWS V14.00,2013-02-14 00:56:00,
2013-02-13 19:57:00,31.3,24.9,29.71,SSE,165,0.0,1.0,77,0.00,,---,0.00,VWS V14.00,2013-02-14 00:57:00,
2013-02-13 19:59:00,31.3,24.9,29.71,SSE,165,0.0,1.0,77,0.00,,---,0.00,VWS V14.00,2013-02-14 00:59:00,
2013-02-13 20:01:00,31.2,24.8,29.71,SSE,165,0.0,0.0,77,0.00,,---,0.00,VWS V14.00,2013-02-14 01:01:00,
2013-02-13 20:02:00,31.2,24.8,29.71,SSE,165,0.0,0.0,77,0.00,,---,0.00,VWS V14.00,2013-02-14 01:02:00,
2013-02-13 20:04:00,31.2,24.8,29.71,SSE,165,0.0,0.0,77,0.00,,---,0.00,VWS V14.00,2013-02-14 01:04:00,
2013-02-13 20:06:00,31.2,25.1,29.71,SSE,165,0.0,0.0,78,0.00,,---,0.00,VWS V14.00,2013-02-14 01:06:00,
2013-02-13 20:07:00,31.2,25.1,29.71,SSE,165,0.0,0.0,78,0.00,,---,0.00,VWS V14.00,2013-02-14 01:07:00,
2013-02-13 20:09:00,31.2,25.1,29.71,SSE,165,0.0,0.0,78,0.00,,---,0.00,VWS V14.00,2013-02-14 01:09:00,
2013-02-13 20:11:00,31.2,25.1,29.71,SSE,165,0.0,0.0,78,0.00,,---,0.00,VWS V14.00,2013-02-14 01:11:00,
2013-02-13 20:12:00,31.2,25.5,29.71,SSE,165,0.0,0.0,79,0.00,,---,0.00,VWS V14.00,2013-02-14 01:12:00,
2013-02-13 20:14:00,31.2,25.5,29.71,SSE,165,0.0,0.0,79,0.00,,---,0.00,VWS V14.00,2013-02-14 01:14:00,
2013-02-13 20:16:00,31.0,25.3,29.72,SSE,165,0.0,0.0,79,0.00,,---,0.00,VWS V14.00,2013-02-14 01:16:00,
2013-02-13 20:17:00,31.0,25.3,29.72,SSE,165,0.0,0.0,79,0.00,,---,0.00,VWS V14.00,2013-02-14 01:17:00,
2013-02-13 20:19:00,31.0,25.3,29.72,SSE,165,0.0,0.0,79,0.00,,---,0.00,VWS V14.00,2013-02-14 01:19:00,
2013-02-13 20:21:00,31.0,25.3,29.72,SSE,165,0.0,0.0,79,0.00,,---,0.00,VWS V14.00,2013-02-14 01:21:00,
2013-02-13 20:22:00,31.0,25.3,29.72,SSE,165,0.0,0.0,79,0.00,,---,0.00,VWS V14.00,2013-02-14 01:22:00,
2013-02-13 20:24:00,31.0,25.6,29.72,SSE,165,0.0,0.0,80,0.00,,---,0.00,VWS V14.00,2013-02-14 01:24:00,
2013-02-13 20:26:00,30.9,25.5,29.72,SSE,165,0.0,0.0,80,0.00,,---,0.00,VWS V14.00,2013-02-14 01:26:00,
2013-02-13 20:27:00,30.9,25.5,29.72,SSE,165,0.0,0.0,80,0.00,,---,0.00,VWS V14.00,2013-02-14 01:27:00,
2013-02-13 20:29:00,30.9,25.5,29.72,SSE,165,0.0,2.0,80,0.00,,---,0.00,VWS V14.00,2013-02-14 01:29:00,
2013-02-13 20:31:00,30.9,25.5,29.72,SSE,165,0.0,2.0,80,0.00,,---,0.00,VWS V14.00,2013-02-14 01:31:00,
2013-02-13 20:32:00,30.9,25.8,29.72,SSE,165,0.0,2.0,81,0.00,,---,0.00,VWS V14.00,2013-02-14 01:32:00,
2013-02-13 20:35:00,30.9,25.8,29.72,SSE,165,0.0,2.0,81,0.00,,---,0.00,VWS V14.00,2013-02-14 01:35:00,
2013-02-13 20:36:00,30.9,25.8,29.72,SSE,165,0.0,2.0,81,0.00,,---,0.00,VWS V14.00,2013-02-14 01:36:00,
2013-02-13 20:37:00,30.9,25.8,29.72,SSE,165,1.0,4.0,81,0.00,,---,0.00,VWS V14.00,2013-02-14 01:37:00,
2013-02-13 20:40:00,30.9,25.8,29.72,SSE,165,4.0,4.0,81,0.00,,---,0.00,VWS V14.00,2013-02-14 01:40:00,
2013-02-13 20:41:00,30.9,25.8,29.72,SSE,165,1.0,4.0,81,0.00,,---,0.00,VWS V14.00,2013-02-14 01:41:00,
2013-02-13 20:42:00,30.9,25.8,29.72,SSE,165,0.0,4.0,81,0.00,,---,0.00,VWS V14.00,2013-02-14 01:42:00,
2013-02-13 20:45:00,30.9,26.1,29.72,SSE,165,1.0,4.0,82,0.00,,---,0.00,VWS V14.00,2013-02-14 01:45:00,
2013-02-13 20:46:00,30.7,25.9,29.72,SSE,165,0.0,4.0,82,0.00,,---,0.00,VWS V14.00,2013-02-14 01:46:00,
2013-02-13 20:47:00,30.7,25.9,29.72,SSE,165,0.0,4.0,82,0.00,,---,0.00,VWS V14.00,2013-02-14 01:47:00,
2013-02-13 20:50:00,30.7,25.9,29.72,South,182,0.0,4.0,82,0.00,,---,0.00,VWS V14.00,2013-02-14 01:50:00,
2013-02-13 20:51:00,30.7,25.9,29.72,South,182,0.0,4.0,82,0.00,,---,0.00,VWS V14.00,2013-02-14 01:51:00,
2013-02-13 20:52:00,30.7,25.9,29.72,South,182,0.0,4.0,82,0.00,,---,0.00,VWS V14.00,2013-02-14 01:52:00,
2013-02-13 20:53:00,30.7,25.9,29.72,South,182,1.0,4.0,82,0.00,,---,0.00,VWS V14.00,2013-02-14 01:53:00,
2013-02-13 20:55:00,30.7,25.9,29.72,South,182,0.0,4.0,82,0.00,,---,0.00,VWS V14.00,2013-02-14 01:55:00,
2013-02-13 20:57:00,30.6,25.8,29.72,South,182,0.0,4.0,82,0.00,,---,0.00,VWS V14.00,2013-02-14 01:57:00,
2013-02-13 20:58:00,30.6,25.8,29.72,South,182,0.0,4.0,82,0.00,,---,0.00,VWS V14.00,2013-02-14 01:58:00,
2013-02-13 21:00:00,30.6,25.8,29.72,South,186,1.0,4.0,82,0.00,,---,0.00,VWS V14.00,2013-02-14 02:00:00,
2013-02-13 21:02:00,30.6,25.8,29.72,South,186,4.0,4.0,82,0.00,,---,0.00,VWS V14.00,2013-02-14 02:02:00,
2013-02-13 21:03:00,30.6,25.8,29.72,South,186,0.0,4.0,82,0.00,,---,0.00,VWS V14.00,2013-02-14 02:03:00,
2013-02-13 21:05:00,30.6,25.8,29.72,South,186,0.0,4.0,82,0.00,,---,0.00,VWS V14.00,2013-02-14 02:05:00,
2013-02-13 21:07:00,30.6,25.8,29.72,South,186,0.0,4.0,82,0.00,,---,0.00,VWS V14.00,2013-02-14 02:07:00,
2013-02-13 21:08:00,30.6,25.8,29.72,South,186,0.0,4.0,82,0.00,,---,0.00,VWS V14.00,2013-02-14 02:08:00,
2013-02-13 21:10:00,30.4,25.9,29.72,South,186,1.0,4.0,83,0.00,,---,0.00,VWS V14.00,2013-02-14 02:10:00,
2013-02-13 21:12:00,30.4,25.9,29.72,South,186,0.0,4.0,83,0.00,,---,0.00,VWS V14.00,2013-02-14 02:12:00,
2013-02-13 21:13:00,30.4,25.9,29.72,South,186,0.0,4.0,83,0.00,,---,0.00,VWS V14.00,2013-02-14 02:13:00,
2013-02-13 21:15:00,30.4,25.9,29.72,South,186,0.0,4.0,83,0.00,,---,0.00,VWS V14.00,2013-02-14 02:15:00,
2013-02-13 21:17:00,30.3,25.8,29.72,South,186,0.0,4.0,83,0.00,,---,0.00,VWS V14.00,2013-02-14 02:17:00,
2013-02-13 21:18:00,30.3,25.8,29.72,South,186,0.0,4.0,83,0.00,,---,0.00,VWS V14.00,2013-02-14 02:18:00,
2013-02-13 21:20:00,30.3,25.8,29.72,South,186,2.0,4.0,83,0.00,,---,0.00,VWS V14.00,2013-02-14 02:20:00,
2013-02-13 21:22:00,30.3,25.8,29.72,South,186,0.0,4.0,83,0.00,,---,0.00,VWS V14.00,2013-02-14 02:22:00,
2013-02-13 21:23:00,30.3,25.8,29.72,South,186,0.0,4.0,83,0.00,,---,0.00,VWS V14.00,2013-02-14 02:23:00,
2013-02-13 21:25:00,30.1,25.6,29.72,South,186,2.0,4.0,83,0.00,,---,0.00,VWS V14.00,2013-02-14 02:25:00,
2013-02-13 21:27:00,30.1,25.6,29.72,South,186,2.0,4.0,83,0.00,,---,0.00,VWS V14.00,2013-02-14 02:27:00,
2013-02-13 21:28:00,30.1,25.6,29.72,South,186,1.0,4.0,83,0.00,,---,0.00,VWS V14.00,2013-02-14 02:28:00,
2013-02-13 21:31:00,30.1,25.6,29.72,South,186,0.0,4.0,83,0.00,,---,0.00,VWS V14.00,2013-02-14 02:31:00,
2013-02-13 21:32:00,30.1,25.6,29.72,South,178,2.0,4.0,83,0.00,,---,0.00,VWS V14.00,2013-02-14 02:32:00,
2013-02-13 21:33:00,30.0,25.5,29.72,South,186,2.0,4.0,83,0.00,,---,0.00,VWS V14.00,2013-02-14 02:33:00,
2013-02-13 21:36:00,30.0,25.8,29.72,South,186,0.0,4.0,84,0.00,,---,0.00,VWS V14.00,2013-02-14 02:36:00,
2013-02-13 21:37:00,30.0,25.8,29.72,South,186,4.0,6.0,84,0.00,,---,0.00,VWS V14.00,2013-02-14 02:37:00,
2013-02-13 21:38:00,30.0,25.8,29.72,South,186,1.0,6.0,84,0.00,,---,0.00,VWS V14.00,2013-02-14 02:38:00,
2013-02-13 21:41:00,29.8,25.6,29.72,South,186,4.0,6.0,84,0.00,,---,0.00,VWS V14.00,2013-02-14 02:41:00,
2013-02-13 21:42:00,29.8,25.6,29.72,South,186,0.0,6.0,84,0.00,,---,0.00,VWS V14.00,2013-02-14 02:42:00,
2013-02-13 21:43:00,29.8,25.6,29.72,South,186,2.0,6.0,84,0.00,,---,0.00,VWS V14.00,2013-02-14 02:43:00,
2013-02-13 21:46:00,29.8,25.6,29.73,South,186,2.0,6.0,84,0.00,,---,0.00,VWS V14.00,2013-02-14 02:46:00,
2013-02-13 21:48:00,29.8,25.6,29.73,South,186,0.0,6.0,84,0.00,,---,0.00,VWS V14.00,2013-02-14 02:48:00,
2013-02-13 21:51:00,29.7,25.5,29.73,South,188,2.0,6.0,84,0.00,,---,0.00,VWS V14.00,2013-02-14 02:51:00,
2013-02-13 21:53:00,29.7,25.5,29.73,South,186,0.0,6.0,84,0.00,,---,0.00,VWS V14.00,2013-02-14 02:53:00,
2013-02-13 21:56:00,29.7,25.8,29.73,South,188,7.0,7.0,85,0.00,,---,0.00,VWS V14.00,2013-02-14 02:56:00,
2013-02-13 21:58:00,29.7,25.8,29.73,South,188,2.0,7.0,85,0.00,,---,0.00,VWS V14.00,2013-02-14 02:58:00,
2013-02-13 22:01:00,29.5,25.6,29.73,South,179,4.0,4.0,85,0.00,,---,0.00,VWS V14.00,2013-02-14 03:01:00,
2013-02-13 22:03:00,29.5,25.6,29.73,SSW,192,2.0,7.0,85,0.00,,---,0.00,VWS V14.00,2013-02-14 03:03:00,
2013-02-13 22:04:00,29.5,25.6,29.73,SSW,192,2.0,7.0,85,0.00,,---,0.00,VWS V14.00,2013-02-14 03:04:00,
2013-02-13 22:06:00,29.5,25.6,29.73,SSW,192,4.0,7.0,85,0.00,,---,0.00,VWS V14.00,2013-02-14 03:06:00,
2013-02-13 22:08:00,29.5,25.6,29.73,SSW,212,2.0,7.0,85,0.00,,---,0.00,VWS V14.00,2013-02-14 03:08:00,
2013-02-13 22:09:00,29.5,25.6,29.73,SSW,200,7.0,7.0,85,0.00,,---,0.00,VWS V14.00,2013-02-14 03:09:00,
2013-02-13 22:12:00,29.5,25.8,29.73,SSW,200,0.0,8.0,86,0.00,,---,0.00,VWS V14.00,2013-02-14 03:12:00,
2013-02-13 22:14:00,29.5,25.8,29.73,SSW,198,4.0,8.0,86,0.00,,---,0.00,VWS V14.00,2013-02-14 03:14:00,
2013-02-13 22:17:00,29.5,25.8,29.73,SSW,198,2.0,8.0,86,0.00,,---,0.00,VWS V14.00,2013-02-14 03:17:00,
2013-02-13 22:19:00,29.5,25.8,29.73,SSW,198,2.0,8.0,86,0.00,,---,0.00,VWS V14.00,2013-02-14 03:19:00,
2013-02-13 22:22:00,29.5,25.8,29.73,SSW,199,2.0,8.0,86,0.00,,---,0.00,VWS V14.00,2013-02-14 03:22:00,
2013-02-13 22:24:00,29.4,25.7,29.73,SSW,199,1.0,8.0,86,0.00,,---,0.00,VWS V14.00,2013-02-14 03:24:00,
2013-02-13 22:27:00,29.4,25.7,29.73,SSW,199,0.0,8.0,86,0.00,,---,0.00,VWS V14.00,2013-02-14 03:27:00,
2013-02-13 22:29:00,29.4,25.7,29.73,SSW,199,0.0,8.0,86,0.00,,---,0.00,VWS V14.00,2013-02-14 03:29:00,
2013-02-13 22:32:00,29.4,25.7,29.73,SSW,199,0.0,8.0,86,0.00,,---,0.00,VWS V14.00,2013-02-14 03:32:00,
2013-02-13 22:34:00,29.4,25.7,29.73,SSW,199,4.0,8.0,86,0.00,,---,0.00,VWS V14.00,2013-02-14 03:34:00,
2013-02-13 22:38:00,29.3,25.6,29.73,SSW,199,2.0,8.0,86,0.00,,---,0.00,VWS V14.00,2013-02-14 03:38:00,
2013-02-13 22:39:00,29.3,25.6,29.73,SSW,199,0.0,8.0,86,0.00,,---,0.00,VWS V14.00,2013-02-14 03:39:00,
2013-02-13 22:43:00,29.3,25.6,29.73,SSW,199,2.0,8.0,86,0.00,,---,0.00,VWS V14.00,2013-02-14 03:43:00,
2013-02-13 22:44:00,29.3,25.6,29.73,SSW,199,0.0,8.0,86,0.00,,---,0.00,VWS V14.00,2013-02-14 03:44:00,
2013-02-13 22:48:00,29.1,25.7,29.73,SSW,199,0.0,8.0,87,0.00,,---,0.00,VWS V14.00,2013-02-14 03:48:00,
2013-02-13 22:49:00,29.1,25.7,29.73,SSW,199,0.0,8.0,87,0.00,,---,0.00,VWS V14.00,2013-02-14 03:49:00,
2013-02-13 22:53:00,29.1,25.7,29.73,SSW,199,2.0,8.0,87,0.00,,---,0.00,VWS V14.00,2013-02-14 03:53:00,
2013-02-13 22:54:00,29.1,25.7,29.73,SSW,199,2.0,8.0,87,0.00,,---,0.00,VWS V14.00,2013-02-14 03:54:00,
2013-02-13 22:58:00,29.1,25.7,29.73,SSW,199,0.0,8.0,87,0.00,,---,0.00,VWS V14.00,2013-02-14 03:58:00,
2013-02-13 22:59:00,29.0,25.6,29.73,SSW,199,4.0,8.0,87,0.00,,---,0.00,VWS V14.00,2013-02-14 03:59:00,
2013-02-13 23:00:00,29.0,25.6,29.73,SSW,199,2.0,8.0,87,0.00,,---,0.00,VWS V14.00,2013-02-14 04:00:00,
2013-02-13 23:03:00,29.0,25.6,29.73,SSW,199,0.0,2.0,87,0.00,,---,0.00,VWS V14.00,2013-02-14 04:03:00,
2013-02-13 23:04:00,29.0,25.6,29.73,SSW,199,0.0,2.0,87,0.00,,---,0.00,VWS V14.00,2013-02-14 04:04:00,
2013-02-13 23:05:00,29.0,25.6,29.73,SSW,199,0.0,2.0,87,0.00,,---,0.00,VWS V14.00,2013-02-14 04:05:00,
2013-02-13 23:08:00,29.0,25.6,29.73,SSW,199,2.0,2.0,87,0.00,,---,0.00,VWS V14.00,2013-02-14 04:08:00,
2013-02-13 23:09:00,29.0,25.6,29.73,SSW,199,0.0,2.0,87,0.00,,---,0.00,VWS V14.00,2013-02-14 04:09:00,
2013-02-13 23:10:00,29.0,25.6,29.73,SSW,199,0.0,2.0,87,0.00,,---,0.00,VWS V14.00,2013-02-14 04:10:00,
2013-02-13 23:13:00,28.8,25.4,29.73,SSW,199,2.0,6.0,87,0.00,,---,0.00,VWS V14.00,2013-02-14 04:13:00,
2013-02-13 23:14:00,28.8,25.4,29.73,SSW,199,2.0,7.0,87,0.00,,---,0.00,VWS V14.00,2013-02-14 04:14:00,
2013-02-13 23:15:00,28.8,25.4,29.73,SSW,199,1.0,7.0,87,0.00,,---,0.00,VWS V14.00,2013-02-14 04:15:00,
2013-02-13 23:18:00,28.8,25.7,29.73,SSW,199,0.0,7.0,88,0.00,,---,0.00,VWS V14.00,2013-02-14 04:18:00,
2013-02-13 23:20:00,28.8,25.7,29.73,SSW,199,4.0,7.0,88,0.00,,---,0.00,VWS V14.00,2013-02-14 04:20:00,
2013-02-13 23:24:00,28.7,25.6,29.73,SSW,199,1.0,7.0,88,0.00,,---,0.00,VWS V14.00,2013-02-14 04:24:00,
2013-02-13 23:25:00,28.7,25.6,29.73,SSW,199,0.0,7.0,88,0.00,,---,0.00,VWS V14.00,2013-02-14 04:25:00,
2013-02-13 23:29:00,28.7,25.6,29.73,SSE,167,0.0,7.0,88,0.00,,---,0.00,VWS V14.00,2013-02-14 04:29:00,
2013-02-13 23:30:00,28.7,25.6,29.72,SSE,167,1.0,7.0,88,0.00,,---,0.00,VWS V14.00,2013-02-14 04:30:00,
2013-02-13 23:34:00,28.7,25.6,29.72,SSE,167,2.0,7.0,88,0.00,,---,0.00,VWS V14.00,2013-02-14 04:34:00,
2013-02-13 23:35:00,28.7,25.6,29.72,SSE,167,1.0,7.0,88,0.00,,---,0.00,VWS V14.00,2013-02-14 04:35:00,
2013-02-13 23:39:00,28.5,25.4,29.72,SSE,167,0.0,7.0,88,0.00,,---,0.00,VWS V14.00,2013-02-14 04:39:00,
2013-02-13 23:40:00,28.5,25.4,29.72,SSE,167,0.0,7.0,88,0.00,,---,0.00,VWS V14.00,2013-02-14 04:40:00,
2013-02-13 23:44:00,28.5,25.4,29.72,SSE,167,1.0,7.0,88,0.00,,---,0.00,VWS V14.00,2013-02-14 04:44:00,
2013-02-13 23:45:00,28.5,25.4,29.72,SSE,167,0.0,7.0,88,0.00,,---,0.00,VWS V14.00,2013-02-14 04:45:00,
2013-02-13 23:50:00,28.4,25.3,29.72,SSE,167,0.0,7.0,88,0.00,,---,0.00,VWS V14.00,2013-02-14 04:50:00,
2013-02-13 23:51:00,28.4,25.3,29.72,SSE,167,0.0,7.0,88,0.00,,---,0.00,VWS V14.00,2013-02-14 04:51:00,
2013-02-13 23:55:00,28.4,25.3,29.72,SSE,167,0.0,7.0,88,0.00,,---,0.00,VWS V14.00,2013-02-14 04:55:00,
2013-02-13 23:56:00,28.4,25.3,29.72,SSE,167,0.0,7.0,88,0.00,,---,0.00,VWS V14.00,2013-02-14 04:56:00,